KJ6MC Weather Reports


Display with metric or nautical units.
time (UTC)temp
F
wind
direction
speed
MPH
gust
MPH
rain 1hr
in
rain 24hr
in
rain mn
in
humidity
%
barometer
mb
20260505153258 54 174 1.0 6.0 0.00 0.28 0.04 93 1014.8
20260505153156 54 134 1.0 6.0 0.00 0.28 0.04 93 1014.8
20260505153055 54 134 1.0 6.0 0.00 0.28 0.04 93 1014.8
20260505152955 54 151 1.0 6.0 0.00 0.28 0.04 93 1014.8
20260505152857 54 124 1.0 6.0 0.00 0.28 0.04 93 1014.8
20260505152751 54 124 2.0 6.0 0.00 0.28 0.04 93 1014.7
20260505152652 54 146 2.0 6.0 0.00 0.28 0.04 93 1014.7
20260505152552 54 129 2.0 6.0 0.00 0.28 0.04 93 1014.7
20260505152451 54 134 1.0 6.0 0.00 0.28 0.04 93 1014.7
20260505152356 54 134 2.0 6.0 0.00 0.28 0.04 93 1014.7
20260505152244 54 129 1.0 6.0 0.00 0.28 0.04 93 1014.7
20260505152143 54 131 1.0 6.0 0.00 0.28 0.04 93 1014.6
20260505152043 54 179 1.0 6.0 0.00 0.28 0.04 93 1014.6
20260505151944 54 131 1.0 6.0 0.00 0.29 0.04 93 1014.7
20260505151846 54 162 1.0 5.0 0.00 0.29 0.04 93 1014.7
20260505151737 54 150 1.0 4.0 0.00 0.29 0.04 93 1014.6
20260505151638 54 117 1.0 4.0 0.00 0.29 0.04 93 1014.6
20260505151538 54 196 1.0 4.0 0.00 0.29 0.04 93 1014.6
20260505151437 54 163 1.0 5.0 0.00 0.29 0.04 93 1014.6
20260505151338 54 138 1.0 5.0 0.00 0.29 0.04 93 1014.6
20260505151236 54 121 1.0 5.0 0.00 0.29 0.04 93 1014.6
20260505151135 54 203 2.0 5.0 0.00 0.29 0.04 93 1014.6
20260505151036 54 134 2.0 5.0 0.00 0.29 0.04 93 1014.6
20260505150934 54 146 2.0 5.0 0.00 0.29 0.04 93 1014.6
20260505150832 54 134 1.0 5.0 0.00 0.29 0.04 93 1014.6
20260505150728 54 113 1.0 5.0 0.00 0.29 0.04 93 1014.6
20260505150626 54 139 1.0 5.0 0.00 0.29 0.04 93 1014.6
20260505150526 54 135 1.0 5.0 0.00 0.29 0.04 92 1014.6
20260505150426 54 150 1.0 3.0 0.00 0.29 0.04 92 1014.5
20260505150339 54 101 1.0 5.0 0.00 0.29 0.04 92 1014.5
20260505150222 54 147 1.0 5.0 0.00 0.29 0.04 92 1014.5
20260505150119 53 150 1.0 5.0 0.00 0.29 0.04 92 1014.5
20260505140616 52 136 1.0 3.0 0.00 0.29 0.04 92 1014.2
20260505140514 52 135 0.0 3.0 0.00 0.29 0.04 91 1014.2
20260505140414 52 139 0.0 3.0 0.00 0.29 0.04 91 1014.2
20260505140313 52 128 1.0 3.0 0.00 0.29 0.04 91 1014.2
20260505140218 52 129 1.0 3.0 0.00 0.29 0.04 92 1014.2
20260505140107 52 104 1.0 3.0 0.00 0.29 0.04 92 1014.2
20260505130301 52 127 2.0 6.0 0.00 0.29 0.04 91 1013.8
20260505130201 52 157 2.0 6.0 0.00 0.29 0.04 91 1013.9
20260505130111 52 134 2.0 6.0 0.00 0.29 0.04 91 1013.8
20260505124945 52 129 1.0 4.0 0.00 0.29 0.04 91 1013.8
20260505124844 52 150 1.0 4.0 0.00 0.29 0.04 91 1013.8
20260505124744 52 124 1.0 4.0 0.00 0.29 0.04 91 1013.8
20260505124643 52 123 1.0 4.0 0.00 0.29 0.04 91 1013.8
20260505124544 52 117 1.0 4.0 0.00 0.29 0.04 91 1013.7
20260505124439 52 136 1.0 4.0 0.00 0.29 0.04 91 1013.7
20260505124340 52 136 1.0 4.0 0.00 0.29 0.04 91 1013.7
20260505124300 52 141 0.0 2.0 0.00 0.29 0.04 91 1013.7
20260505124239 52 137 1.0 4.0 0.00 0.29 0.04 91 1013.7
20260505124154 52 176 0.0 4.0 0.00 0.29 0.04 91 1013.7
20260505124144 52 141 0.0 2.0 0.00 0.29 0.04 91 1013.7
20260505123938 52 141 0.0 2.0 0.00 0.29 0.04 91 1013.7
20260505123835 52 137 0.0 2.0 0.00 0.29 0.04 91 1013.7
20260505123757 52 139 0.0 2.0 0.00 0.29 0.04 91 1013.6
20260505123735 52 134 0.0 2.0 0.00 0.29 0.04 91 1013.6
20260505123649 52 139 0.0 2.0 0.00 0.29 0.04 91 1013.6
20260505123639 52 139 0.0 2.0 0.00 0.29 0.04 91 1013.6
20260505123508 52 136 1.0 3.0 0.00 0.29 0.04 91 1013.6
20260505123431 52 180 0.0 3.0 0.00 0.29 0.04 91 1013.6
20260505123356 52 205 0.0 3.0 0.00 0.29 0.04 91 1013.7
20260505123227 52 173 1.0 3.0 0.00 0.29 0.04 91 1013.6
20260505123141 52 134 1.0 3.0 0.00 0.29 0.04 91 1013.6
20260505123131 52 136 1.0 3.0 0.00 0.29 0.04 91 1013.6
20260505122921 52 137 1.0 3.0 0.00 0.29 0.04 91 1013.6
20260505122819 52 127 1.0 3.0 0.00 0.29 0.04 91 1013.7
20260505122749 52 148 1.0 4.0 0.00 0.29 0.04 91 1013.7
20260505122720 52 224 1.0 4.0 0.00 0.29 0.04 91 1013.7
20260505122636 52 131 1.0 4.0 0.00 0.29 0.04 91 1013.7
20260505122625 52 148 1.0 4.0 0.00 0.29 0.04 91 1013.7
20260505122414 52 141 1.0 4.0 0.00 0.29 0.04 91 1013.7
20260505122314 52 134 1.0 4.0 0.00 0.29 0.04 91 1013.7
20260505122239 52 138 1.0 4.0 0.00 0.29 0.04 91 1013.7
20260505122214 52 134 1.0 4.0 0.00 0.29 0.04 91 1013.7
20260505122130 52 141 1.0 4.0 0.00 0.29 0.04 91 1013.7
20260505122120 52 138 1.0 4.0 0.00 0.29 0.04 91 1013.7
20260505121914 52 147 1.0 4.0 0.00 0.29 0.04 91 1013.7
20260505121811 52 142 1.0 4.0 0.00 0.29 0.04 91 1013.7
20260505121709 52 91 2.0 4.0 0.00 0.29 0.04 91 1013.7
20260505121610 52 147 2.0 5.0 0.00 0.29 0.04 91 1013.7
20260505121509 52 113 2.0 5.0 0.00 0.29 0.04 91 1013.7
20260505121402 52 122 2.0 5.0 0.00 0.29 0.04 91 1013.7
20260505121301 52 132 2.0 5.0 0.00 0.29 0.04 91 1013.8
20260505121201 52 141 1.0 5.0 0.00 0.29 0.04 91 1013.7
20260505121102 52 144 1.0 5.0 0.00 0.29 0.04 91 1013.7
20260505121003 52 144 1.0 5.0 0.00 0.29 0.04 91 1013.7
20260505120855 52 142 1.0 5.0 0.00 0.29 0.04 91 1013.7
20260505120755 52 132 1.0 5.0 0.00 0.29 0.04 91 1013.8
20260505120655 52 135 1.0 5.0 0.00 0.29 0.04 91 1013.8
20260505120555 52 136 1.0 5.0 0.00 0.29 0.04 91 1013.9
20260505120458 52 101 0.0 3.0 0.00 0.29 0.04 91 1013.8
20260505120351 52 134 0.0 3.0 0.00 0.29 0.04 91 1013.8
20260505120249 52 203 0.0 3.0 0.00 0.29 0.04 91 1013.9
20260505120150 52 203 1.0 3.0 0.00 0.29 0.04 91 1013.9
20260505120049 52 124 1.0 2.0 0.00 0.29 0.04 91 1013.9
20260505115951 52 125 1.0 2.0 0.00 0.29 0.04 91 1013.8
20260505115843 52 125 1.0 2.0 0.00 0.29 0.04 91 1013.8
20260505115743 52 125 1.0 2.0 0.00 0.29 0.04 91 1013.9
20260505115644 52 147 1.0 3.0 0.00 0.29 0.04 91 1013.9
20260505115544 52 141 1.0 3.0 0.00 0.29 0.04 91 1013.9
20260505115445 52 141 1.0 3.0 0.00 0.29 0.04 91 1013.9
20260505115338 52 141 1.0 3.0 0.00 0.29 0.04 91 1013.9
20260505115237 52 110 1.0 3.0 0.00 0.29 0.04 91 1013.8
20260505115137 52 162 1.0 3.0 0.00 0.29 0.04 91 1013.8
20260505115037 52 161 1.0 3.0 0.00 0.29 0.04 91 1013.8
20260505114939 52 162 1.0 3.0 0.00 0.29 0.04 91 1013.8
20260505114837 52 164 1.0 3.0 0.00 0.29 0.04 91 1013.8
20260505114735 52 163 1.0 5.0 0.00 0.29 0.04 91 1013.8
20260505114653 52 129 1.0 6.0 0.00 0.29 0.04 91 1013.8
20260505114633 52 141 1.0 6.0 0.00 0.29 0.04 91 1013.8
20260505114548 52 137 1.0 6.0 0.00 0.29 0.04 91 1013.8
20260505114538 52 129 1.0 6.0 0.00 0.29 0.04 91 1013.8
20260505114328 52 200 1.0 6.0 0.00 0.29 0.04 91 1013.8
20260505114226 52 198 1.0 6.0 0.00 0.29 0.04 91 1013.8
20260505114125 52 151 1.0 6.0 0.00 0.29 0.04 91 1013.8
20260505114025 52 132 1.0 6.0 0.00 0.29 0.04 91 1013.8
20260505113929 52 129 1.0 6.0 0.00 0.29 0.04 91 1013.9
20260505113819 52 149 1.0 6.0 0.00 0.29 0.04 91 1013.9
20260505113720 52 146 1.0 6.0 0.00 0.29 0.04 91 1013.9
20260505113619 52 214 1.0 2.0 0.00 0.29 0.04 91 1013.9
20260505113520 52 191 1.0 4.0 0.00 0.29 0.04 91 1013.9
20260505113422 52 131 1.0 4.0 0.00 0.29 0.04 91 1013.9
20260505113320 52 211 1.0 4.0 0.00 0.29 0.04 91 1013.9
20260505113217 52 119 1.0 4.0 0.00 0.29 0.04 91 1013.9
20260505113134 52 118 1.0 4.0 0.00 0.29 0.04 91 1014.0
20260505113117 52 117 1.0 4.0 0.00 0.29 0.04 91 1014.0
20260505113029 52 119 1.0 4.0 0.00 0.29 0.04 91 1014.0
20260505113019 52 118 1.0 4.0 0.00 0.29 0.04 91 1014.0
20260505112813 52 119 1.0 4.0 0.00 0.29 0.04 91 1014.0
20260505112712 52 124 1.0 4.0 0.00 0.29 0.04 91 1013.9
20260505112612 52 132 1.0 4.0 0.00 0.29 0.04 91 1013.9
20260505112510 52 135 1.0 4.0 0.00 0.29 0.04 91 1013.9
20260505112410 52 133 1.0 4.0 0.00 0.29 0.04 91 1013.8
20260505112305 52 200 1.0 4.0 0.00 0.29 0.04 91 1013.8
20260505112203 52 200 1.0 4.0 0.00 0.29 0.04 91 1013.7
20260505112104 52 229 1.0 4.0 0.00 0.29 0.04 91 1013.7
20260505112003 52 231 1.0 4.0 0.00 0.29 0.04 91 1013.7
20260505111902 52 147 1.0 4.0 0.00 0.29 0.04 91 1013.7
20260505111801 52 205 1.0 4.0 0.00 0.29 0.04 91 1013.7
20260505111619 52 138 1.0 3.0 0.00 0.29 0.04 91 1013.7
20260505111559 52 200 1.0 4.0 0.00 0.29 0.04 91 1013.7
20260505111512 52 205 0.0 3.0 0.00 0.29 0.04 91 1013.7
20260505111501 52 138 1.0 3.0 0.00 0.29 0.04 91 1013.7
20260505111250 52 138 1.0 3.0 0.00 0.29 0.04 91 1013.7
20260505111149 52 138 1.0 3.0 0.00 0.29 0.04 91 1013.8
20260505111049 52 138 1.0 3.0 0.00 0.29 0.04 91 1013.8
20260505110949 52 134 1.0 3.0 0.00 0.29 0.04 91 1013.8
20260505110851 52 95 1.0 3.0 0.00 0.29 0.04 91 1013.8
20260505110744 52 147 2.0 4.0 0.00 0.29 0.04 91 1013.8
20260505110643 52 160 2.0 4.0 0.00 0.29 0.04 91 1013.9
20260505110543 52 203 1.0 4.0 0.00 0.29 0.04 91 1013.9
20260505110443 52 210 1.0 4.0 0.00 0.29 0.04 91 1013.9
20260505110345 52 83 1.0 4.0 0.00 0.29 0.04 91 1013.9
20260505110242 52 132 1.0 4.0 0.00 0.29 0.04 91 1013.9
20260505110141 52 129 1.0 4.0 0.00 0.29 0.04 91 1013.8
20260505102149 52 141 1.0 4.0 0.00 0.29 0.04 91 1014.0
20260505102049 52 122 1.0 4.0 0.00 0.29 0.04 91 1014.0
20260505101950 52 148 1.0 4.0 0.00 0.29 0.04 91 1014.0
20260505101849 52 114 1.0 4.0 0.00 0.29 0.04 91 1014.0
20260505101753 52 129 2.0 4.0 0.00 0.29 0.04 91 1014.0
20260505101643 52 152 2.0 4.0 0.00 0.29 0.04 91 1014.0
20260505101544 52 133 2.0 4.0 0.00 0.29 0.04 91 1013.9
20260505101444 52 130 2.0 4.0 0.00 0.29 0.04 91 1013.9
20260505101343 52 145 1.0 4.0 0.00 0.29 0.04 91 1013.9
20260505101246 52 129 1.0 4.0 0.00 0.29 0.04 91 1013.9
20260505101139 52 152 1.0 4.0 0.00 0.29 0.04 91 1014.0
20260505101038 52 145 1.0 4.0 0.00 0.29 0.04 91 1014.0
20260505100939 52 141 1.0 4.0 0.00 0.29 0.04 91 1014.0
20260505100837 52 110 1.0 4.0 0.00 0.29 0.04 91 1014.1
20260505100740 52 138 1.0 4.0 0.00 0.29 0.04 91 1014.1
20260505100631 52 138 1.0 4.0 0.00 0.29 0.04 91 1014.1
20260505100532 52 136 1.0 4.0 0.00 0.29 0.04 91 1014.1
20260505100432 52 139 1.0 3.0 0.00 0.29 0.04 91 1014.1
20260505100331 52 143 1.0 3.0 0.00 0.29 0.04 91 1014.1
20260505100234 52 143 1.0 3.0 0.00 0.29 0.04 91 1014.1
20260505100130 52 129 1.0 3.0 0.00 0.29 0.04 91 1014.1
20260505100029 52 141 1.0 3.0 0.00 0.29 0.04 91 1014.1
20260505095929 52 132 1.0 3.0 0.00 0.29 0.04 91 1014.1
20260505095827 52 133 1.0 3.0 0.00 0.29 0.04 91 1014.1
20260505095728 52 132 1.0 3.0 0.00 0.29 0.04 91 1014.1
20260505095619 52 134 1.0 2.0 0.00 0.29 0.04 91 1014.2
20260505095519 52 134 1.0 2.0 0.00 0.29 0.04 91 1014.1
20260505095419 52 136 1.0 2.0 0.00 0.29 0.04 91 1014.1
20260505095319 52 135 1.0 2.0 0.00 0.29 0.04 91 1014.1
20260505095223 52 136 1.0 2.0 0.00 0.29 0.04 91 1014.1
20260505095118 52 147 1.0 2.0 0.00 0.29 0.04 91 1014.1
20260505095017 52 136 1.0 3.0 0.00 0.29 0.04 91 1014.1
20260505094934 52 118 1.0 3.0 0.00 0.29 0.04 91 1014.1
20260505094917 52 134 1.0 3.0 0.00 0.29 0.04 91 1014.1
20260505094830 52 133 1.0 3.0 0.00 0.29 0.04 91 1014.1
20260505094820 52 118 1.0 3.0 0.00 0.29 0.04 91 1014.1
20260505094611 52 133 1.0 3.0 0.00 0.29 0.04 91 1014.1
20260505094511 52 134 1.0 3.0 0.00 0.29 0.04 91 1014.1
20260505094411 52 134 1.0 3.0 0.00 0.29 0.04 91 1014.1
20260505094309 52 134 1.0 4.0 0.00 0.29 0.04 91 1014.1
20260505094210 52 134 1.0 4.0 0.00 0.29 0.04 91 1014.0
20260505094102 52 138 1.0 4.0 0.00 0.29 0.04 91 1014.0
20260505094001 52 139 1.0 4.0 0.00 0.29 0.04 91 1014.0
20260505093901 52 131 1.0 4.0 0.00 0.29 0.04 91 1013.9
20260505093802 51 131 1.0 4.0 0.00 0.29 0.04 91 1013.9
20260505093702 51 131 1.0 4.0 0.00 0.29 0.04 91 1014.0
20260505093556 51 131 1.0 4.0 0.00 0.29 0.04 91 1014.0
20260505093455 51 129 1.0 4.0 0.00 0.29 0.04 91 1014.0
20260505093427 51 135 1.0 3.0 0.00 0.29 0.04 91 1014.1
20260505093357 51 134 1.0 4.0 0.00 0.29 0.04 91 1014.1
20260505093314 51 141 1.0 3.0 0.00 0.29 0.04 91 1014.1
20260505093304 51 135 1.0 3.0 0.00 0.29 0.04 91 1014.1
20260505093056 51 152 1.0 3.0 0.00 0.29 0.04 91 1014.1
20260505092953 51 134 1.0 3.0 0.00 0.29 0.04 91 1014.1
20260505092853 51 131 1.0 3.0 0.00 0.29 0.04 91 1014.2
20260505092752 51 139 1.0 3.0 0.00 0.29 0.04 91 1014.1
20260505092652 51 134 1.0 3.0 0.00 0.29 0.04 91 1014.2
20260505092546 51 149 1.0 3.0 0.00 0.29 0.04 91 1014.2
20260505092446 51 121 1.0 3.0 0.00 0.29 0.04 91 1014.2
20260505092346 51 133 1.0 3.0 0.00 0.29 0.04 91 1014.2
20260505092245 51 139 1.0 3.0 0.00 0.29 0.04 91 1014.3
20260505092145 51 133 1.0 3.0 0.00 0.29 0.04 91 1014.3
20260505092037 51 136 1.0 3.0 0.00 0.29 0.04 91 1014.2
20260505091937 51 135 1.0 3.0 0.00 0.29 0.04 91 1014.2
20260505091838 51 139 1.0 3.0 0.00 0.29 0.04 91 1014.2
20260505091737 51 146 1.0 3.0 0.00 0.29 0.04 91 1014.3
20260505091639 51 214 1.0 3.0 0.00 0.29 0.04 91 1014.3
20260505091537 51 205 1.0 4.0 0.00 0.29 0.04 91 1014.2
20260505091435 51 213 1.0 4.0 0.00 0.29 0.04 91 1014.3
20260505091354 51 154 1.0 4.0 0.00 0.29 0.04 91 1014.4
20260505091334 51 167 1.0 4.0 0.00 0.29 0.04 91 1014.3
20260505091247 51 148 1.0 4.0 0.00 0.29 0.04 91 1014.4
20260505091237 51 154 1.0 4.0 0.00 0.29 0.04 91 1014.4
20260505091029 51 113 1.0 4.0 0.00 0.29 0.04 91 1014.4
20260505090929 51 125 2.0 4.0 0.00 0.29 0.04 91 1014.4
20260505090829 51 136 2.0 4.0 0.00 0.29 0.04 91 1014.4
20260505090727 51 131 1.0 4.0 0.00 0.29 0.04 91 1014.4
20260505090627 51 136 1.0 4.0 0.00 0.29 0.04 91 1014.4
20260505090524 51 131 1.0 3.0 0.00 0.29 0.04 91 1014.4
20260505090423 51 143 1.0 3.0 0.00 0.29 0.04 91 1014.4
20260505090326 51 148 1.0 3.0 0.00 0.29 0.04 91 1014.4
20260505090221 51 148 1.0 3.0 0.00 0.29 0.04 91 1014.4
20260505090120 51 132 1.0 3.0 0.00 0.29 0.04 91 1014.4
20260505090016 51 146 1.0 3.0 0.00 0.29 0.04 91 1014.4
20260505085914 51 136 1.0 3.0 0.00 0.29 0.04 91 1014.4
20260505085813 51 142 1.0 3.0 0.00 0.29 0.04 91 1014.4
20260505085714 51 143 1.0 3.0 0.00 0.29 0.04 91 1014.4
20260505085615 51 142 1.0 3.0 0.00 0.29 0.04 91 1014.4
20260505085511 51 143 1.0 3.0 0.00 0.29 0.04 91 1014.4
20260505085411 51 122 1.0 3.0 0.01 0.29 0.04 91 1014.4
20260505085310 52 120 1.0 4.0 0.01 0.29 0.04 91 1014.4
20260505085210 52 197 1.0 5.0 0.01 0.29 0.04 91 1014.5
20260505085109 52 155 1.0 5.0 0.01 0.29 0.04 91 1014.5
20260505085003 52 143 2.0 5.0 0.01 0.29 0.04 91 1014.6
20260505084903 52 129 2.0 5.0 0.01 0.29 0.04 91 1014.5
20260505084804 52 128 2.0 5.0 0.01 0.29 0.04 91 1014.5
20260505084704 52 144 2.0 5.0 0.01 0.29 0.04 91 1014.5
20260505084602 52 131 2.0 5.0 0.01 0.29 0.04 91 1014.5
20260505084455 52 153 2.0 5.0 0.01 0.29 0.04 91 1014.6
20260505084355 52 128 2.0 5.0 0.02 0.29 0.04 91 1014.5
20260505084255 52 145 2.0 5.0 0.02 0.29 0.04 91 1014.6
20260505084156 52 166 2.0 5.0 0.02 0.29 0.04 91 1014.6
20260505084057 52 151 2.0 5.0 0.02 0.29 0.04 91 1014.6
20260505083949 52 136 1.0 5.0 0.02 0.29 0.04 91 1014.6
20260505083850 52 129 1.0 4.0 0.02 0.29 0.04 91 1014.6
20260505083750 52 139 1.0 4.0 0.02 0.29 0.04 91 1014.6
20260505083649 52 134 1.0 4.0 0.02 0.29 0.04 91 1014.6
20260505083550 52 150 1.0 4.0 0.02 0.29 0.04 91 1014.6
20260505083443 52 148 1.0 4.0 0.02 0.29 0.04 91 1014.6
20260505083343 52 139 1.0 4.0 0.02 0.29 0.04 91 1014.6
20260505083243 52 141 1.0 4.0 0.02 0.29 0.04 91 1014.6
20260505083144 52 145 1.0 4.0 0.02 0.29 0.04 91 1014.6
20260505083045 52 146 1.0 4.0 0.02 0.29 0.04 91 1014.5
20260505082940 52 145 1.0 4.0 0.02 0.29 0.04 91 1014.5
20260505082838 52 141 1.0 4.0 0.02 0.29 0.04 91 1014.5
20260505082737 52 195 1.0 4.0 0.02 0.29 0.04 91 1014.6
20260505082638 52 119 1.0 4.0 0.02 0.29 0.04 91 1014.6
20260505082538 52 114 1.0 4.0 0.02 0.29 0.04 91 1014.6
20260505082434 52 215 1.0 4.0 0.02 0.29 0.04 91 1014.6
20260505082333 52 239 1.0 4.0 0.02 0.29 0.04 91 1014.6
20260505082233 52 207 1.0 4.0 0.02 0.29 0.04 91 1014.6
20260505082133 52 125 1.0 4.0 0.02 0.29 0.04 91 1014.6
20260505082035 52 143 1.0 4.0 0.03 0.29 0.04 91 1014.5
20260505081930 52 120 1.0 4.0 0.03 0.29 0.04 91 1014.6
20260505081829 52 201 1.0 4.0 0.03 0.29 0.04 91 1014.6
20260505081732 52 132 1.0 4.0 0.03 0.29 0.04 91 1014.6
20260505081627 52 137 1.0 4.0 0.03 0.29 0.04 91 1014.6
20260505081529 52 144 1.0 4.0 0.03 0.29 0.04 91 1014.6
20260505081423 52 144 1.0 4.0 0.03 0.29 0.04 91 1014.6
20260505081325 52 125 1.0 3.0 0.03 0.29 0.04 91 1014.6
20260505081224 52 141 1.0 4.0 0.03 0.29 0.04 91 1014.6
20260505081121 52 248 1.0 4.0 0.03 0.29 0.04 91 1014.5
20260505081021 52 151 1.0 4.0 0.03 0.29 0.04 91 1014.6
20260505080919 52 162 1.0 4.0 0.03 0.29 0.04 91 1014.6
20260505080818 52 162 1.0 4.0 0.03 0.29 0.04 91 1014.6
20260505080736 52 198 1.0 4.0 0.03 0.29 0.04 91 1014.6
20260505080715 52 129 1.0 4.0 0.03 0.29 0.04 91 1014.6
20260505080629 52 205 1.0 4.0 0.03 0.29 0.04 91 1014.6
20260505080619 52 198 1.0 4.0 0.03 0.29 0.04 91 1014.6
20260505080308 52 205 1.0 4.0 0.04 0.29 0.04 91 1014.6
20260505080208 52 219 1.0 3.0 0.04 0.29 0.04 91 1014.6
20260505080107 52 186 1.0 4.0 0.04 0.29 0.04 91 1014.6
20260505080010 52 198 1.0 6.0 0.04 0.29 0.04 91 1014.6
20260505075906 52 192 1.0 6.0 0.04 0.29 0.04 91 1014.6
20260505075705 52 222 2.0 6.0 0.05 0.29 0.04 91 1014.6
20260505075603 52 226 2.0 6.0 0.05 0.29 0.04 91 1014.7
20260505075507 52 127 2.0 6.0 0.04 0.28 0.04 91 1014.6
20260505075355 52 195 2.0 6.0 0.04 0.28 0.03 91 1014.7
20260505075256 52 174 2.0 6.0 0.04 0.28 0.03 91 1014.7
20260505075218 52 163 2.0 5.0 0.05 0.28 0.03 91 1014.7
20260505075156 52 150 2.0 6.0 0.04 0.28 0.03 91 1014.7
20260505075112 52 158 2.0 6.0 0.05 0.28 0.03 91 1014.7
20260505075102 52 163 2.0 5.0 0.05 0.28 0.03 91 1014.7
20260505074852 52 231 2.0 5.0 0.05 0.28 0.03 91 1014.6
20260505074751 52 212 2.0 5.0 0.05 0.28 0.03 91 1014.7
20260505074652 52 222 2.0 5.0 0.05 0.28 0.03 91 1014.7
20260505074552 52 210 2.0 5.0 0.05 0.28 0.03 91 1014.8
20260505074450 52 239 1.0 5.0 0.05 0.28 0.03 91 1014.9
20260505074345 52 146 1.0 5.0 0.04 0.27 0.03 91 1014.9
20260505074243 52 210 1.0 5.0 0.04 0.27 0.02 91 1014.9
20260505074144 52 149 1.0 3.0 0.04 0.27 0.02 91 1014.9
20260505074043 52 150 1.0 3.0 0.04 0.27 0.02 91 1014.9
20260505073946 52 155 1.0 3.0 0.04 0.27 0.02 91 1014.9
20260505073844 52 155 1.0 3.0 0.04 0.27 0.02 91 1014.9
20260505073742 52 169 0.0 3.0 0.05 0.27 0.02 91 1015.0
20260505073639 52 150 0.0 2.0 0.05 0.27 0.02 91 1015.0
20260505073539 52 148 0.0 2.0 0.05 0.27 0.02 91 1015.0
20260505073438 52 147 0.0 2.0 0.05 0.27 0.02 91 1015.0
20260505073336 52 138 0.0 2.0 0.05 0.27 0.02 91 1015.0
20260505073236 52 139 0.0 2.0 0.05 0.27 0.02 91 1015.0
20260505073135 52 127 0.0 2.0 0.05 0.27 0.02 91 1015.0
20260505073033 52 198 0.0 1.0 0.05 0.27 0.02 91 1014.9
20260505072935 52 197 0.0 1.0 0.05 0.27 0.02 91 1015.0
20260505072827 52 197 0.0 2.0 0.05 0.27 0.02 91 1015.0
20260505072726 52 197 0.0 2.0 0.05 0.27 0.02 91 1015.0
20260505072626 52 197 0.0 2.0 0.05 0.27 0.02 91 1015.0
20260505072525 52 198 0.0 2.0 0.05 0.27 0.02 91 1015.0
20260505072427 52 198 0.0 2.0 0.05 0.27 0.02 91 1015.0
20260505072324 52 198 0.0 2.0 0.06 0.27 0.02 91 1015.0
20260505072223 52 197 0.0 2.0 0.06 0.27 0.02 91 1015.0
20260505072122 52 197 0.0 2.0 0.06 0.27 0.02 91 1015.0
20260505072021 52 198 0.0 2.0 0.05 0.26 0.02 91 1015.0
20260505071920 52 217 0.0 2.0 0.05 0.26 0.01 91 1015.0
20260505071816 52 148 0.0 2.0 0.05 0.26 0.01 91 1014.9
20260505071714 52 148 0.0 2.0 0.05 0.26 0.01 91 1015.0
20260505071613 52 148 0.0 2.0 0.05 0.26 0.01 91 1015.0
20260505071514 52 150 0.0 2.0 0.05 0.26 0.01 91 1015.0
20260505071417 52 151 0.0 2.0 0.05 0.26 0.01 91 1014.9
20260505071307 52 150 0.0 2.0 0.05 0.26 0.01 91 1014.9
20260505071208 52 150 0.0 2.0 0.05 0.26 0.01 91 1015.0
20260505071107 52 150 0.0 2.0 0.05 0.26 0.01 91 1015.0
20260505071007 52 151 0.0 2.0 0.06 0.26 0.01 91 1015.0
20260505070909 52 150 0.0 2.0 0.06 0.26 0.01 91 1015.0
20260505070805 52 151 0.0 2.0 0.06 0.26 0.01 91 1014.9
20260505070706 52 151 0.0 2.0 0.06 0.26 0.01 91 1014.9
20260505070605 52 150 0.0 2.0 0.06 0.26 0.01 91 1014.9
20260505070503 52 151 0.0 2.0 0.06 0.26 0.01 91 1014.8
20260505070405 52 150 0.0 2.0 0.05 0.25 0.00 91 1014.8
20260505070258 52 155 0.0 2.0 0.05 0.25 0.00 91 1014.7
20260505070155 52 226 0.0 2.0 0.06 0.25 0.00 91 1014.7
20260505070056 52 226 0.0 2.0 0.06 0.25 0.00 91 1014.7
20260505065956 52 226 0.0 2.0 0.06 0.25 0.25 91 1014.6
20260505065857 52 226 0.0 2.0 0.06 0.25 0.25 91 1014.5
20260505065755 52 226 1.0 2.0 0.06 0.25 0.25 91 1014.5
20260505065653 52 226 1.0 2.0 0.06 0.24 0.25 91 1014.5
20260505065553 52 226 1.0 2.0 0.06 0.24 0.24 91 1014.5
20260505065452 52 210 0.0 2.0 0.06 0.24 0.24 91 1014.5
20260505065351 52 210 0.0 2.0 0.06 0.24 0.24 91 1014.5
20260505065243 52 210 0.0 2.0 0.06 0.24 0.24 91 1014.5
20260505065144 52 210 0.0 2.0 0.07 0.24 0.24 91 1014.5
20260505065043 52 210 0.0 2.0 0.06 0.23 0.24 91 1014.5
20260505064944 52 207 0.0 1.0 0.06 0.23 0.23 91 1014.6
20260505064845 52 207 0.0 1.0 0.06 0.23 0.23 91 1014.7
20260505064740 52 207 0.0 1.0 0.06 0.23 0.23 91 1014.6
20260505064640 52 207 0.0 1.0 0.06 0.23 0.23 91 1014.7
20260505064539 52 207 0.0 1.0 0.06 0.23 0.23 91 1014.7
20260505064440 52 207 0.0 1.0 0.06 0.23 0.23 91 1014.8
20260505064339 52 207 0.0 1.0 0.07 0.23 0.23 91 1014.8
20260505064238 52 207 0.0 1.0 0.07 0.23 0.23 91 1014.9
20260505064136 52 207 0.0 1.0 0.07 0.23 0.23 91 1014.8
20260505064035 52 207 0.0 1.0 0.07 0.23 0.23 91 1014.9
20260505063934 52 207 0.0 1.0 0.07 0.23 0.23 91 1014.8
20260505063834 52 207 0.0 1.0 0.07 0.23 0.23 91 1014.8
20260505063731 52 207 0.0 1.0 0.06 0.22 0.22 91 1014.8
20260505063630 52 207 0.0 1.0 0.06 0.22 0.22 91 1014.9
20260505063530 52 207 0.0 1.0 0.06 0.22 0.22 91 1014.8
20260505063428 52 207 0.0 1.0 0.06 0.22 0.22 91 1014.9
20260505063328 52 207 0.0 1.0 0.06 0.22 0.22 91 1014.9
20260505063221 52 207 0.0 0.0 0.06 0.22 0.22 91 1014.9
20260505063120 52 207 0.0 0.0 0.06 0.22 0.22 91 1015.0
20260505063020 52 207 0.0 0.0 0.06 0.22 0.22 91 1015.0
20260505062919 52 207 0.0 0.0 0.06 0.22 0.22 91 1015.0
20260505062821 53 207 0.0 0.0 0.06 0.22 0.22 91 1015.0
20260505062720 53 207 0.0 0.0 0.06 0.22 0.22 91 1014.9
20260505062618 53 207 0.0 0.0 0.06 0.22 0.22 91 1014.9
20260505062517 53 207 0.0 0.0 0.06 0.22 0.22 91 1014.9
20260505062415 53 207 0.0 1.0 0.06 0.22 0.22 91 1014.8
20260505062318 53 207 0.0 1.0 0.05 0.21 0.22 91 1014.8
20260505062213 53 207 0.0 2.0 0.05 0.21 0.21 91 1014.8
20260505062112 53 207 0.0 2.0 0.05 0.21 0.21 91 1014.8
20260505062012 53 207 0.0 2.0 0.05 0.21 0.21 91 1014.7
20260505061909 53 207 0.0 2.0 0.05 0.21 0.21 91 1014.7
20260505061809 53 207 1.0 2.0 0.05 0.21 0.21 91 1014.7
20260505061706 53 207 1.0 2.0 0.05 0.21 0.21 91 1014.5
20260505061606 53 207 1.0 2.0 0.05 0.21 0.21 91 1014.5
20260505061519 53 207 1.0 2.0 0.05 0.21 0.21 91 1014.3
20260505061505 53 207 1.0 2.0 0.05 0.21 0.21 91 1014.4
20260505061423 53 207 1.0 2.0 0.05 0.21 0.21 91 1014.3
20260505061407 53 207 1.0 2.0 0.05 0.21 0.21 91 1014.3
20260505061201 53 198 1.0 2.0 0.05 0.21 0.21 91 1014.2
20260505061100 53 212 0.0 2.0 0.04 0.20 0.21 91 1014.2
20260505060958 53 205 0.0 2.0 0.04 0.20 0.20 91 1014.2
20260505060857 53 207 0.0 2.0 0.04 0.20 0.20 91 1014.3
20260505060757 53 215 0.0 1.0 0.04 0.20 0.20 91 1014.3
20260505060650 53 216 0.0 1.0 0.04 0.20 0.20 91 1014.4
20260505060550 53 215 0.0 1.0 0.04 0.20 0.20 91 1014.4
20260505060449 53 215 0.0 1.0 0.04 0.20 0.20 91 1014.4
20260505060349 53 215 0.0 1.0 0.04 0.20 0.20 91 1014.4
20260505060251 53 207 0.0 1.0 0.04 0.20 0.20 91 1014.5
20260505060149 53 207 0.0 1.0 0.03 0.19 0.20 91 1014.5
20260505060047 53 207 0.0 1.0 0.03 0.19 0.19 91 1014.5
20260505055946 53 207 0.0 1.0 0.03 0.19 0.19 91 1014.5
20260505055846 53 207 0.0 1.0 0.03 0.19 0.19 91 1014.5
20260505055745 53 207 0.0 1.0 0.03 0.19 0.19 91 1014.6
20260505055638 53 207 0.0 1.0 0.02 0.18 0.19 91 1014.6
20260505055537 53 207 0.0 1.0 0.02 0.18 0.18 91 1014.6
20260505055438 53 207 0.0 1.0 0.02 0.18 0.18 91 1014.5
20260505055338 53 207 0.0 1.0 0.02 0.18 0.18 91 1014.6
20260505055238 53 207 0.0 1.0 0.01 0.17 0.18 91 1014.6
20260505055132 53 97 0.0 1.0 0.02 0.17 0.17 91 1014.6
20260505055032 53 97 0.0 1.0 0.02 0.17 0.17 91 1014.6
20260505054931 53 98 0.0 2.0 0.02 0.17 0.17 91 1014.6
20260505054832 53 97 1.0 2.0 0.02 0.17 0.17 91 1014.6
20260505054733 53 98 1.0 2.0 0.02 0.17 0.17 91 1014.6
20260505054627 53 98 1.0 2.0 0.02 0.17 0.17 91 1014.6
20260505054528 53 97 1.0 2.0 0.02 0.17 0.17 91 1014.5
20260505054427 53 98 1.0 2.0 0.02 0.17 0.17 91 1014.6
20260505054327 53 97 1.0 2.0 0.01 0.16 0.16 91 1014.6
20260505054227 53 115 1.0 2.0 0.01 0.16 0.16 91 1014.6
20260505054122 53 102 1.0 2.0 0.01 0.16 0.16 91 1014.6
20260505054020 53 113 1.0 2.0 0.02 0.16 0.16 91 1014.6
20260505053940 53 115 0.0 2.0 0.02 0.16 0.16 91 1014.6
20260505053919 53 113 1.0 2.0 0.02 0.16 0.16 91 1014.6
20260505053836 53 113 1.0 2.0 0.02 0.16 0.16 91 1014.6
20260505053825 53 115 0.0 2.0 0.02 0.16 0.16 91 1014.6
20260505053614 53 122 0.0 2.0 0.02 0.16 0.16 91 1014.5
20260505053514 53 110 0.0 2.0 0.02 0.16 0.16 91 1014.5
20260505053413 53 96 0.0 2.0 0.02 0.16 0.16 91 1014.4
20260505053314 53 95 0.0 2.0 0.02 0.16 0.16 91 1014.4
20260505053216 53 94 0.0 2.0 0.02 0.16 0.16 91 1014.4
20260505053113 53 95 0.0 2.0 0.02 0.16 0.16 91 1014.4
20260505053012 53 94 0.0 2.0 0.02 0.16 0.16 91 1014.4
20260505052911 53 95 0.0 2.0 0.02 0.16 0.16 91 1014.4
20260505052810 53 95 0.0 2.0 0.02 0.16 0.16 91 1014.4
20260505052710 53 94 0.0 2.0 0.03 0.16 0.16 91 1014.4
20260505052602 53 95 0.0 2.0 0.03 0.16 0.16 91 1014.4
20260505052502 53 97 0.0 2.0 0.03 0.16 0.16 91 1014.4
20260505052401 53 144 0.0 1.0 0.03 0.16 0.16 91 1014.3
20260505052301 53 143 0.0 1.0 0.03 0.16 0.16 91 1014.4
20260505052203 53 144 0.0 1.0 0.03 0.16 0.16 91 1014.3
20260505052055 53 144 0.0 1.0 0.03 0.16 0.16 91 1014.4
20260505051956 53 143 0.0 1.0 0.03 0.16 0.16 91 1014.4
20260505051856 53 144 0.0 1.0 0.03 0.16 0.16 91 1014.5
20260505051756 53 143 0.0 1.0 0.03 0.16 0.16 91 1014.5
20260505051709 53 143 0.0 1.0 0.03 0.16 0.16 91 1014.5
20260505051551 53 143 0.0 1.0 0.04 0.16 0.16 91 1014.6
20260505051449 53 144 0.0 1.0 0.04 0.16 0.16 91 1014.6
20260505051350 53 143 0.0 1.0 0.04 0.16 0.16 91 1014.6
20260505051250 53 144 0.0 1.0 0.04 0.16 0.16 91 1014.6
20260505051152 53 143 0.0 1.0 0.04 0.16 0.16 91 1014.7
20260505051047 53 144 0.0 0.0 0.04 0.16 0.16 91 1014.7
20260505050947 53 144 0.0 0.0 0.04 0.16 0.16 91 1014.6
20260505050847 53 143 0.0 0.0 0.04 0.16 0.16 91 1014.6
20260505050747 53 144 0.0 0.0 0.04 0.16 0.16 91 1014.6
20260505050652 53 143 0.0 0.0 0.04 0.16 0.16 91 1014.7
20260505050625 53 143 0.0 0.0 0.05 0.16 0.16 91 1014.7
20260505050538 53 144 0.0 0.0 0.04 0.16 0.16 91 1014.7
20260505050510 53 144 0.0 0.0 0.04 0.16 0.16 91 1014.7
20260505050338 53 143 0.0 0.0 0.05 0.16 0.16 91 1014.7
20260505050255 53 144 0.0 0.0 0.05 0.16 0.16 91 1014.7
20260505050245 53 143 0.0 0.0 0.05 0.16 0.16 91 1014.7
20260505041744 54 170 0.0 1.0 0.09 0.13 0.13 92 1014.7
20260505041644 54 170 0.0 1.0 0.09 0.13 0.13 92 1014.7
20260505041547 54 170 0.0 1.0 0.08 0.12 0.12 92 1014.7
20260505041439 54 115 0.0 1.0 0.08 0.12 0.12 92 1014.7
20260505041340 54 116 0.0 1.0 0.08 0.12 0.12 92 1014.7
20260505041239 54 115 0.0 1.0 0.08 0.12 0.12 92 1014.7
20260505041139 54 116 0.0 1.0 0.08 0.12 0.12 91 1014.7
20260505041039 55 115 0.0 1.0 0.08 0.12 0.12 92 1014.8
20260505040932 55 116 0.0 1.0 0.08 0.12 0.12 92 1014.7
20260505040831 55 115 0.0 1.0 0.08 0.12 0.12 92 1014.7
20260505040731 55 116 0.0 1.0 0.08 0.12 0.12 92 1014.7
20260505040632 55 116 0.0 1.0 0.08 0.12 0.12 91 1014.7
20260505040535 55 115 0.0 1.0 0.08 0.12 0.12 92 1014.7
20260505040429 55 108 0.0 0.0 0.07 0.11 0.12 92 1014.7
20260505040330 55 107 0.0 0.0 0.07 0.11 0.11 92 1014.7
20260505040256 55 108 0.0 0.0 0.07 0.11 0.11 92 1014.8
20260505040231 55 108 0.0 0.0 0.07 0.11 0.11 92 1014.7
20260505040142 55 107 0.0 0.0 0.07 0.11 0.11 92 1014.7
20260505040131 55 108 0.0 0.0 0.07 0.11 0.11 92 1014.8
20260505035920 55 107 0.0 0.0 0.07 0.11 0.11 92 1014.8
20260505035820 55 108 0.0 0.0 0.07 0.11 0.11 92 1014.8
20260505035719 55 108 0.0 0.0 0.07 0.11 0.11 92 1014.8
20260505035620 55 108 0.0 0.0 0.07 0.11 0.11 92 1014.8
20260505035520 55 108 0.0 0.0 0.07 0.11 0.11 92 1014.8
20260505035414 55 107 0.0 0.0 0.07 0.11 0.11 92 1014.8
20260505035313 55 108 0.0 0.0 0.07 0.11 0.11 92 1014.8
20260505035214 55 107 0.0 0.0 0.07 0.11 0.11 92 1014.8
20260505035114 55 108 0.0 0.0 0.06 0.10 0.10 92 1014.8
20260505035015 55 108 0.0 0.0 0.06 0.10 0.10 92 1014.7
20260505034912 55 108 0.0 0.0 0.06 0.10 0.10 92 1014.7
20260505034811 55 108 0.0 0.0 0.06 0.10 0.10 92 1014.7
20260505034708 55 107 0.0 0.0 0.06 0.10 0.10 92 1014.7
20260505034607 55 107 0.0 0.0 0.05 0.09 0.10 92 1014.7
20260505034509 55 108 0.0 0.0 0.05 0.09 0.09 92 1014.7
20260505034408 55 108 0.0 0.0 0.05 0.09 0.09 92 1014.7
20260505034307 55 107 0.0 0.0 0.05 0.09 0.09 92 1014.7
20260505034203 55 107 0.0 0.0 0.05 0.09 0.09 92 1014.6
20260505034104 55 108 0.0 0.0 0.05 0.09 0.09 92 1014.6
20260505034003 55 107 0.0 1.0 0.04 0.08 0.08 92 1014.6
20260505033856 55 108 0.0 1.0 0.04 0.08 0.08 92 1014.5
20260505033755 55 108 0.0 1.0 0.04 0.08 0.08 92 1014.5
20260505033656 55 108 0.0 1.0 0.03 0.07 0.08 92 1014.6
20260505033555 55 107 0.0 1.0 0.03 0.07 0.07 92 1014.5
20260505033456 55 107 0.0 1.0 0.03 0.07 0.07 92 1014.5
20260505033350 55 108 0.0 1.0 0.02 0.06 0.07 92 1014.5
20260505033250 55 108 0.0 1.0 0.02 0.06 0.06 92 1014.5
20260505033150 55 107 0.0 1.0 0.02 0.06 0.06 92 1014.5
20260505033050 56 108 0.0 1.0 0.02 0.06 0.06 92 1014.5
20260505032951 56 108 0.0 0.0 0.01 0.05 0.06 92 1014.5
20260505032843 56 108 0.0 0.0 0.01 0.05 0.05 92 1014.5
20260505032744 56 108 0.0 0.0 0.01 0.05 0.05 92 1014.6
20260505032703 56 108 0.0 0.0 0.01 0.05 0.05 92 1014.6
20260505032643 56 108 0.0 0.0 0.01 0.05 0.05 92 1014.6
20260505032600 56 108 0.0 0.0 0.01 0.05 0.05 92 1014.6
20260505032550 56 108 0.0 0.0 0.01 0.05 0.05 92 1014.6
20260505032341 56 107 0.0 0.0 0.01 0.05 0.05 92 1014.7
20260505032241 56 108 0.0 1.0 0.01 0.05 0.05 92 1014.6
20260505032142 56 108 0.0 1.0 0.01 0.05 0.05 91 1014.7
20260505032040 56 108 0.0 1.0 0.00 0.04 0.05 88 1014.7
20260505031941 56 108 0.0 1.0 0.00 0.04 0.04 88 1014.7
20260505031836 56 108 0.0 1.0 0.00 0.04 0.04 88 1014.7
20260505031736 56 107 0.0 1.0 0.00 0.04 0.04 88 1014.7
20260505031635 56 107 0.0 1.0 0.00 0.04 0.04 88 1014.7
20260505031534 56 108 0.0 1.0 0.00 0.04 0.04 88 1014.6
20260505031432 56 108 0.0 1.0 0.00 0.04 0.04 88 1014.6
20260505031332 56 108 0.0 1.0 0.00 0.04 0.04 87 1014.6
20260505031231 56 107 0.0 1.0 0.00 0.04 0.04 88 1014.5
20260505031129 57 108 0.0 1.0 0.00 0.04 0.04 87 1014.5
20260505031027 56 108 0.0 1.0 0.00 0.04 0.04 87 1014.5
20260505030928 57 108 0.0 0.0 0.00 0.04 0.04 87 1014.4
20260505030822 57 108 0.0 0.0 0.00 0.04 0.04 87 1014.4
20260505030719 57 107 0.0 0.0 0.00 0.04 0.04 87 1014.3
20260505030619 57 108 0.0 0.0 0.00 0.04 0.04 87 1014.3
20260505030423 57 108 0.0 1.0 0.00 0.04 0.04 87 1014.3
20260505030318 57 108 0.0 1.0 0.00 0.04 0.04 86 1014.2
20260505030218 57 108 0.0 1.0 0.00 0.04 0.04 86 1014.2
20260505030118 57 108 0.0 1.0 0.00 0.04 0.04 86 1014.2
20260505030016 57 108 0.0 1.0 0.00 0.04 0.04 86 1014.2
20260505025929 57 108 0.0 1.0 0.00 0.04 0.04 86 1014.2
20260505025807 57 108 0.0 1.0 0.00 0.04 0.04 86 1014.1
20260505025708 57 108 0.0 1.0 0.00 0.04 0.04 86 1014.1
20260505025607 57 107 0.0 1.0 0.00 0.04 0.04 86 1014.1
20260505025507 57 108 0.0 1.0 0.00 0.04 0.04 86 1014.1
20260505025412 57 107 0.0 1.0 0.00 0.04 0.04 86 1014.1
20260505025304 57 107 0.0 1.0 0.00 0.04 0.04 86 1014.1
20260505025202 57 107 0.0 1.0 0.00 0.04 0.04 86 1014.1
20260505025101 57 108 0.0 1.0 0.00 0.04 0.04 86 1014.1
20260505025002 57 108 0.0 1.0 0.00 0.04 0.04 86 1014.1
20260505024904 57 107 0.0 1.0 0.00 0.04 0.04 86 1014.0
20260505024800 57 107 0.0 1.0 0.00 0.04 0.04 86 1014.0
20260505024700 57 107 0.0 2.0 0.00 0.04 0.04 86 1014.0
20260505024600 57 108 0.0 2.0 0.00 0.04 0.04 86 1014.0
20260505024457 57 124 0.0 2.0 0.00 0.04 0.04 86 1013.9
20260505024359 57 124 0.0 2.0 0.00 0.04 0.04 86 1013.9
20260505024251 57 124 0.0 2.0 0.00 0.04 0.04 86 1013.9
20260505024150 57 124 0.0 3.0 0.00 0.04 0.04 86 1013.8
20260505024050 57 129 0.0 3.0 0.00 0.04 0.04 86 1013.8
20260505023949 57 128 0.0 3.0 0.00 0.04 0.04 86 1013.8
20260505023851 57 128 1.0 3.0 0.00 0.04 0.04 85 1013.8
20260505023750 57 134 1.0 3.0 0.00 0.04 0.04 86 1013.8
20260505023648 57 135 1.0 3.0 0.00 0.04 0.04 86 1013.8
20260505023547 57 136 1.0 3.0 0.00 0.04 0.04 86 1013.8
20260505023446 57 136 1.0 3.0 0.00 0.04 0.04 85 1013.8
20260505023358 57 136 1.0 3.0 0.01 0.04 0.04 86 1013.8
20260505023242 57 110 1.0 3.0 0.01 0.04 0.04 85 1013.8
20260505023142 57 96 1.0 3.0 0.01 0.04 0.04 85 1013.8
20260505023041 57 96 1.0 3.0 0.01 0.04 0.04 85 1013.8
20260505022940 57 96 1.0 3.0 0.01 0.04 0.04 85 1013.8
20260505022839 57 96 1.0 3.0 0.01 0.04 0.04 85 1013.8
20260505022738 57 96 1.0 3.0 0.01 0.04 0.04 85 1013.8
20260505022636 57 115 1.0 3.0 0.01 0.04 0.04 85 1013.8
20260505022535 57 117 1.0 3.0 0.01 0.04 0.04 85 1013.9
20260505022434 57 117 1.0 3.0 0.01 0.04 0.04 85 1013.9
20260505022334 57 129 1.0 3.0 0.01 0.04 0.04 85 1013.9
20260505022226 57 102 1.0 3.0 0.01 0.04 0.04 85 1013.9
20260505022125 57 88 1.0 3.0 0.01 0.04 0.04 85 1014.0
20260505022046 57 102 1.0 3.0 0.01 0.04 0.04 85 1014.0
20260505022026 57 97 1.0 3.0 0.01 0.04 0.04 86 1013.9
20260505021941 57 104 1.0 3.0 0.01 0.04 0.04 85 1014.0
20260505021931 57 102 1.0 3.0 0.01 0.04 0.04 85 1014.0
20260505021721 57 113 1.0 3.0 0.01 0.04 0.04 86 1014.0
20260505021619 57 110 1.0 3.0 0.01 0.04 0.04 86 1014.0
20260505021541 57 136 0.0 2.0 0.01 0.04 0.04 86 1014.0
20260505021520 57 110 1.0 2.0 0.01 0.04 0.04 86 1014.0
20260505021435 57 136 1.0 2.0 0.01 0.04 0.04 86 1014.0
20260505021425 57 136 0.0 2.0 0.01 0.04 0.04 86 1014.0
20260505021216 57 136 0.0 2.0 0.01 0.04 0.04 86 1014.0
20260505021113 57 136 0.0 2.0 0.01 0.04 0.04 86 1013.9
20260505021013 57 132 0.0 2.0 0.01 0.04 0.04 86 1014.0
20260505020914 57 144 0.0 2.0 0.01 0.04 0.04 86 1014.0
20260505020814 57 143 0.0 2.0 0.01 0.04 0.04 86 1013.9
20260505020708 57 162 0.0 2.0 0.01 0.04 0.04 87 1014.0
20260505020608 57 118 0.0 2.0 0.01 0.04 0.04 86 1013.9
20260505020508 57 119 0.0 2.0 0.01 0.04 0.04 86 1013.9
20260505020408 57 168 0.0 2.0 0.01 0.04 0.04 86 1013.9
20260505020309 57 167 0.0 2.0 0.01 0.04 0.04 86 1013.9
20260505020203 57 167 0.0 2.0 0.01 0.04 0.04 86 1013.9
20260505020104 57 167 0.0 2.0 0.02 0.04 0.04 85 1013.9
20260505020028 57 148 1.0 2.0 0.02 0.04 0.04 85 1013.9
20260505020004 57 148 0.0 2.0 0.02 0.04 0.04 85 1013.9
20260505015920 57 148 0.0 2.0 0.02 0.04 0.04 86 1013.9
20260505015909 57 148 1.0 2.0 0.02 0.04 0.04 85 1013.9
20260505015658 57 148 1.0 3.0 0.02 0.04 0.04 85 1013.9
20260505015558 57 144 1.0 3.0 0.02 0.04 0.04 85 1013.9
20260505015457 57 135 1.0 3.0 0.02 0.04 0.04 85 1013.9
20260505015358 57 141 1.0 3.0 0.02 0.04 0.04 86 1013.9
20260505015300 57 141 1.0 5.0 0.02 0.04 0.04 85 1013.9
20260505015152 57 141 1.0 5.0 0.02 0.04 0.04 85 1013.9
20260505015049 57 141 1.0 5.0 0.02 0.04 0.04 85 1013.9
20260505014950 57 150 1.0 5.0 0.02 0.04 0.04 85 1013.9
20260505014850 57 138 1.0 5.0 0.02 0.04 0.04 85 1013.9
20260505014751 57 137 1.0 5.0 0.02 0.04 0.04 86 1013.9
20260505014646 57 142 1.0 5.0 0.02 0.04 0.04 86 1013.9
20260505014543 57 132 1.0 5.0 0.02 0.04 0.04 86 1013.9
20260505014444 57 110 1.0 5.0 0.02 0.04 0.04 86 1013.9
20260505014344 57 110 1.0 5.0 0.02 0.04 0.04 86 1014.0
20260505014246 57 122 0.0 3.0 0.02 0.04 0.04 87 1013.9
20260505014144 57 110 0.0 3.0 0.02 0.04 0.04 87 1014.0
20260505014042 57 110 0.0 3.0 0.02 0.04 0.04 87 1013.9
20260505013940 57 110 0.0 3.0 0.02 0.04 0.04 87 1013.9
20260505013840 57 110 0.0 3.0 0.02 0.04 0.04 87 1013.9
20260505013739 57 211 0.0 3.0 0.02 0.04 0.04 86 1014.0
20260505013637 57 211 0.0 3.0 0.02 0.04 0.04 86 1013.9
20260505013536 57 211 0.0 3.0 0.02 0.04 0.04 86 1013.9
20260505013434 57 211 1.0 3.0 0.02 0.04 0.04 86 1013.9
20260505013333 57 138 1.0 4.0 0.01 0.03 0.04 86 1013.9
20260505013234 57 141 1.0 4.0 0.01 0.03 0.03 86 1013.9
20260505013128 57 141 1.0 4.0 0.01 0.03 0.03 86 1013.9
20260505013026 57 141 1.0 4.0 0.01 0.03 0.03 86 1013.9
20260505012926 57 141 1.0 4.0 0.01 0.03 0.03 86 1013.9
20260505012826 57 141 1.0 4.0 0.01 0.03 0.03 85 1013.9
20260505012727 57 147 2.0 4.0 0.01 0.03 0.03 85 1013.9
20260505012619 57 95 1.0 4.0 0.01 0.03 0.03 85 1013.8
20260505012520 57 89 1.0 4.0 0.01 0.03 0.03 85 1013.8
20260505012441 57 100 1.0 3.0 0.01 0.03 0.03 85 1013.8
20260505012420 57 104 1.0 4.0 0.01 0.03 0.03 85 1013.8
20260505012351 57 101 1.0 4.0 0.01 0.03 0.03 85 1013.8
20260505012327 57 100 1.0 3.0 0.01 0.03 0.03 85 1013.8
20260505012117 57 116 1.0 3.0 0.01 0.03 0.03 85 1013.9
20260505012018 57 139 1.0 3.0 0.01 0.03 0.03 85 1013.9
20260505011917 57 140 1.0 3.0 0.01 0.03 0.03 85 1013.9
20260505011815 57 116 1.0 3.0 0.01 0.03 0.03 85 1013.9
20260505011718 57 110 1.0 2.0 0.01 0.03 0.03 85 1013.9
20260505011610 57 99 1.0 2.0 0.01 0.03 0.03 85 1013.9
20260505011508 57 98 1.0 3.0 0.01 0.03 0.03 85 1014.0
20260505011407 57 110 1.0 3.0 0.01 0.03 0.03 85 1014.0
20260505011308 57 106 1.0 3.0 0.01 0.03 0.03 85 1014.0
20260505011208 57 106 1.0 3.0 0.01 0.03 0.03 84 1014.0
20260505011102 57 114 1.0 3.0 0.01 0.03 0.03 84 1014.0
20260505011002 57 114 0.0 3.0 0.01 0.03 0.03 85 1014.1
20260505010925 58 115 0.0 3.0 0.01 0.03 0.03 85 1014.1
20260505010902 58 150 0.0 3.0 0.01 0.03 0.03 85 1014.1
20260505010818 58 151 0.0 3.0 0.01 0.03 0.03 85 1014.1
20260505010808 58 115 0.0 3.0 0.01 0.03 0.03 85 1014.1
20260505010600 58 91 0.0 3.0 0.01 0.03 0.03 87 1014.2
20260505010500 58 120 0.0 3.0 0.01 0.03 0.03 87 1014.1
20260505010419 58 120 1.0 4.0 0.01 0.03 0.03 87 1014.2
20260505010357 58 120 1.0 3.0 0.01 0.03 0.03 87 1014.2
20260505010321 58 120 1.0 4.0 0.01 0.03 0.03 88 1014.2
20260505010303 58 120 1.0 4.0 0.01 0.03 0.03 87 1014.2
20260505010056 58 120 1.0 4.0 0.00 0.02 0.02 87 1014.2
20260505005954 58 120 1.0 4.0 0.00 0.02 0.02 87 1014.3
20260505005854 58 120 1.0 4.0 0.00 0.02 0.02 87 1014.3
20260505005751 58 120 1.0 4.0 0.00 0.02 0.02 87 1014.3
20260505005651 58 120 1.0 4.0 0.00 0.02 0.02 87 1014.3
20260505005544 58 119 1.0 4.0 0.00 0.02 0.02 87 1014.3
20260505005443 58 110 1.0 4.0 0.00 0.02 0.02 88 1014.2
20260505005344 58 113 0.0 4.0 0.00 0.02 0.02 87 1014.2
20260505005243 58 71 0.0 2.0 0.00 0.02 0.02 87 1014.3
20260505005145 58 77 0.0 1.0 0.00 0.02 0.02 88 1014.3
20260505005038 58 75 0.0 2.0 0.00 0.02 0.02 88 1014.3
20260505004938 58 75 0.0 3.0 0.00 0.02 0.02 88 1014.3
20260505004838 58 75 0.0 3.0 0.00 0.02 0.02 88 1014.4
20260505004737 58 75 0.0 3.0 0.00 0.02 0.02 88 1014.4
20260505004639 58 75 0.0 3.0 0.00 0.02 0.02 87 1014.4
20260505004537 58 27 0.0 3.0 0.00 0.02 0.02 87 1014.4
20260505004435 58 49 0.0 3.0 0.00 0.02 0.02 87 1014.5
20260505004336 58 49 0.0 3.0 0.00 0.02 0.02 87 1014.4
20260505004233 58 49 0.0 3.0 0.00 0.02 0.02 87 1014.4
20260505004133 58 49 0.0 3.0 0.00 0.02 0.02 86 1014.4
20260505004029 58 43 0.0 3.0 0.00 0.02 0.02 86 1014.4
20260505003930 58 79 0.0 3.0 0.00 0.02 0.02 86 1014.4
20260505003830 58 75 0.0 3.0 0.00 0.02 0.02 86 1014.4
20260505003731 58 75 0.0 3.0 0.00 0.02 0.02 86 1014.4
20260505003627 58 75 0.0 3.0 0.00 0.02 0.02 85 1014.4
20260505003523 58 75 0.0 3.0 0.00 0.02 0.02 85 1014.4
20260505003423 58 110 1.0 3.0 0.00 0.02 0.02 85 1014.4
20260505003324 58 110 1.0 3.0 0.00 0.02 0.02 85 1014.3
20260505003221 58 110 1.0 3.0 0.00 0.02 0.02 84 1014.3
20260505003121 58 110 1.0 3.0 0.00 0.02 0.02 84 1014.3
20260505003016 58 110 1.0 3.0 0.00 0.02 0.02 83 1014.3
20260505002916 58 110 0.0 3.0 0.00 0.02 0.02 84 1014.3
20260505002816 59 128 1.0 3.0 0.00 0.02 0.02 84 1014.3
20260505002716 59 129 1.0 4.0 0.00 0.02 0.02 84 1014.2
20260505002615 59 78 1.0 5.0 0.00 0.02 0.02 84 1014.3
20260505002512 59 111 1.0 5.0 0.00 0.02 0.02 84 1014.3
20260505002412 59 127 1.0 5.0 0.00 0.02 0.02 84 1014.2
20260505002334 59 71 1.0 5.0 0.00 0.02 0.02 84 1014.3
20260505002312 59 71 1.0 5.0 0.00 0.02 0.02 85 1014.2
20260505002226 59 71 1.0 5.0 0.00 0.02 0.02 84 1014.3
20260505002215 59 71 1.0 5.0 0.00 0.02 0.02 84 1014.3
20260505002004 59 71 1.0 5.0 0.00 0.02 0.02 84 1014.3
20260505001902 59 70 1.0 5.0 0.00 0.02 0.02 84 1014.3
20260505001801 59 92 1.0 5.0 0.00 0.02 0.02 84 1014.3
20260505001702 59 104 1.0 5.0 0.00 0.02 0.02 85 1014.4
20260505001604 59 15 1.0 4.0 0.00 0.02 0.02 84 1014.3
20260505001456 59 99 1.0 4.0 0.00 0.02 0.02 84 1014.3
20260505001355 59 79 1.0 4.0 0.00 0.02 0.02 84 1014.4
20260505001255 59 118 1.0 4.0 0.00 0.02 0.02 84 1014.4
20260505001156 59 122 1.0 4.0 0.00 0.02 0.02 84 1014.4
20260505001057 59 70 1.0 4.0 0.00 0.02 0.02 85 1014.4
20260505000954 59 49 1.0 4.0 0.00 0.02 0.02 85 1014.3
20260505000853 59 104 1.0 4.0 0.00 0.02 0.02 85 1014.3
20260505000754 59 117 1.0 4.0 0.00 0.02 0.02 85 1014.3
20260505000653 59 68 1.0 4.0 0.00 0.02 0.02 84 1014.2
20260505000552 59 68 1.0 4.0 0.01 0.02 0.02 84 1014.2
20260505000443 59 141 1.0 4.0 0.01 0.02 0.02 84 1014.2
20260505000343 59 105 1.0 4.0 0.01 0.02 0.02 83 1014.2
20260505000248 59 54 1.0 4.0 0.01 0.02 0.02 84 1014.1
20260505000143 59 83 1.0 5.0 0.01 0.02 0.02 84 1014.1
20260505000059 59 91 1.0 5.0 0.01 0.02 0.02 84 1014.2
20260504235937 59 101 1.0 5.0 0.01 0.02 0.02 85 1014.1
20260504235838 59 113 1.0 5.0 0.01 0.02 0.02 84 1014.1
20260504235738 59 108 1.0 5.0 0.01 0.02 0.02 84 1014.1
20260504235637 60 86 1.0 5.0 0.01 0.02 0.02 84 1014.1
20260504235539 60 95 1.0 5.0 0.01 0.02 0.02 83 1014.1
20260504235434 60 335 1.0 5.0 0.01 0.02 0.02 83 1014.1
20260504235333 60 116 1.0 5.0 0.01 0.02 0.02 83 1014.1
20260504235234 60 71 1.0 5.0 0.01 0.02 0.02 83 1014.1
20260504235134 60 115 1.0 5.0 0.01 0.02 0.02 83 1014.1
20260504235033 60 122 1.0 5.0 0.01 0.02 0.02 83 1014.1
20260504234928 60 122 1.0 5.0 0.01 0.02 0.02 82 1014.1
20260504234826 60 121 1.0 5.0 0.01 0.02 0.02 81 1014.1
20260504234726 60 108 1.0 5.0 0.01 0.02 0.02 81 1014.1
20260504234626 60 129 1.0 5.0 0.01 0.02 0.02 81 1014.1
20260504234526 60 134 1.0 5.0 0.01 0.02 0.02 82 1014.1
20260504234425 60 127 1.0 5.0 0.01 0.02 0.02 81 1014.1
20260504234324 60 64 1.0 5.0 0.01 0.02 0.02 81 1014.1
20260504234223 60 146 1.0 5.0 0.01 0.02 0.02 81 1014.2
20260504234121 60 155 1.0 5.0 0.01 0.02 0.02 81 1014.2
20260504234023 60 110 1.0 5.0 0.01 0.02 0.02 81 1014.2
20260504233915 60 148 1.0 5.0 0.01 0.02 0.02 80 1014.2
20260504233814 60 127 1.0 5.0 0.01 0.02 0.02 80 1014.2
20260504233714 60 155 1.0 5.0 0.01 0.02 0.02 80 1014.3
20260504233613 60 110 1.0 5.0 0.01 0.02 0.02 80 1014.2
20260504233515 60 115 1.0 5.0 0.01 0.02 0.02 79 1014.3
20260504233410 60 115 1.0 5.0 0.01 0.02 0.02 79 1014.2
20260504233309 60 115 2.0 5.0 0.01 0.02 0.02 79 1014.3
20260504233210 60 105 2.0 5.0 0.01 0.02 0.02 79 1014.2
20260504233110 60 96 2.0 5.0 0.01 0.02 0.02 79 1014.2
20260504233011 60 108 2.0 5.0 0.01 0.02 0.02 80 1014.2
20260504232906 60 104 2.0 5.0 0.01 0.02 0.02 80 1014.2
20260504232806 60 134 2.0 5.0 0.01 0.02 0.02 80 1014.2
20260504232704 60 106 2.0 5.0 0.01 0.02 0.02 79 1014.3
20260504232604 60 96 2.0 5.0 0.01 0.02 0.02 79 1014.2
20260504232504 60 81 2.0 5.0 0.01 0.02 0.02 79 1014.2
20260504232357 60 99 2.0 5.0 0.01 0.02 0.02 78 1014.2
20260504232257 60 110 2.0 5.0 0.01 0.02 0.02 79 1014.2
20260504232157 60 103 2.0 5.0 0.01 0.02 0.02 79 1014.2
20260504232058 60 68 2.0 5.0 0.01 0.02 0.02 80 1014.2
20260504231958 60 129 1.0 4.0 0.01 0.02 0.02 80 1014.2
20260504231856 60 89 1.0 4.0 0.01 0.02 0.02 80 1014.2
20260504231754 60 94 2.0 4.0 0.01 0.02 0.02 81 1014.2
20260504231654 60 95 2.0 4.0 0.01 0.02 0.02 81 1014.2
20260504231551 60 95 2.0 4.0 0.01 0.02 0.02 80 1014.2
20260504231450 60 140 2.0 6.0 0.01 0.02 0.02 80 1014.2
20260504231344 60 148 2.0 6.0 0.01 0.02 0.02 80 1014.2
20260504231246 60 105 2.0 6.0 0.01 0.02 0.02 79 1014.3
20260504231143 60 91 2.0 6.0 0.01 0.02 0.02 79 1014.3
20260504231044 60 100 2.0 6.0 0.01 0.02 0.02 79 1014.3
20260504230946 60 134 2.0 6.0 0.01 0.02 0.02 79 1014.3
20260504230838 60 97 2.0 6.0 0.01 0.02 0.02 79 1014.3
20260504230738 60 108 2.0 6.0 0.01 0.02 0.02 79 1014.3
20260504230637 60 105 2.0 6.0 0.01 0.02 0.02 80 1014.3
20260504230538 60 110 2.0 6.0 0.00 0.01 0.02 80 1014.3
20260504230440 60 103 2.0 6.0 0.00 0.01 0.01 81 1014.3
20260504230331 60 102 2.0 6.0 0.00 0.01 0.01 81 1014.3
20260504230231 60 91 3.0 6.0 0.00 0.01 0.01 81 1014.3
20260504230132 60 99 3.0 6.0 0.00 0.01 0.01 81 1014.3
20260504230031 60 107 3.0 6.0 0.00 0.01 0.01 80 1014.3
20260504225934 60 90 3.0 6.0 0.00 0.01 0.01 81 1014.3
20260504225825 60 140 3.0 6.0 0.00 0.01 0.01 80 1014.3
20260504225726 60 95 3.0 6.0 0.00 0.01 0.01 80 1014.3
20260504225626 60 127 3.0 6.0 0.00 0.01 0.01 79 1014.3
20260504225526 60 71 3.0 6.0 0.00 0.01 0.01 79 1014.3
20260504225427 60 124 3.0 6.0 0.00 0.01 0.01 79 1014.3
20260504225321 60 129 3.0 6.0 0.00 0.01 0.01 79 1014.3
20260504225219 60 117 3.0 6.0 0.00 0.01 0.01 78 1014.3
20260504225119 60 110 3.0 6.0 0.00 0.01 0.01 79 1014.4
20260504225019 60 105 3.0 6.0 0.00 0.01 0.01 79 1014.4
20260504224921 61 106 3.0 6.0 0.00 0.01 0.01 80 1014.4
20260504224814 61 121 3.0 6.0 0.00 0.01 0.01 80 1014.5
20260504224714 61 108 3.0 6.0 0.00 0.01 0.01 80 1014.4
20260504224635 61 121 2.0 6.0 0.00 0.01 0.01 79 1014.5
20260504224614 61 122 3.0 6.0 0.00 0.01 0.01 79 1014.5
20260504224531 61 64 2.0 6.0 0.00 0.01 0.01 79 1014.5
20260504224521 61 121 2.0 6.0 0.00 0.01 0.01 79 1014.5
20260504224307 61 80 3.0 7.0 0.00 0.01 0.01 79 1014.5
20260504224208 61 103 2.0 7.0 0.00 0.01 0.01 79 1014.5
20260504224108 61 79 2.0 7.0 0.00 0.01 0.01 77 1014.5
20260504224007 61 98 2.0 7.0 0.00 0.01 0.01 77 1014.5
20260504223909 61 109 2.0 7.0 0.00 0.01 0.01 77 1014.5
20260504223808 61 68 2.0 7.0 0.00 0.01 0.01 76 1014.5
20260504223706 61 49 2.0 7.0 0.00 0.01 0.01 77 1014.5
20260504223604 61 52 2.0 7.0 0.00 0.01 0.01 77 1014.5
20260504223504 61 117 2.0 7.0 0.00 0.01 0.01 75 1014.5
20260504223404 62 114 2.0 7.0 0.00 0.01 0.01 76 1014.5
20260504223257 62 101 2.0 6.0 0.00 0.01 0.01 76 1014.5
20260504223158 62 79 2.0 6.0 0.00 0.01 0.01 76 1014.5
20260504223058 62 59 2.0 6.0 0.00 0.01 0.01 76 1014.5
20260504222958 62 75 3.0 6.0 0.00 0.01 0.01 76 1014.5
20260504222856 62 79 3.0 6.0 0.00 0.01 0.01 77 1014.5
20260504222750 62 98 3.0 6.0 0.00 0.01 0.01 77 1014.5
20260504222650 62 93 2.0 6.0 0.00 0.01 0.01 76 1014.5
20260504222549 62 129 2.0 6.0 0.00 0.01 0.01 76 1014.6
20260504222450 62 120 2.0 6.0 0.00 0.01 0.01 75 1014.5
20260504222351 62 89 2.0 6.0 0.00 0.01 0.01 75 1014.5
20260504222245 62 110 2.0 4.0 0.00 0.01 0.01 75 1014.5
20260504222143 62 97 2.0 4.0 0.00 0.01 0.01 74 1014.5
20260504222043 62 96 2.0 4.0 0.00 0.01 0.01 74 1014.5
20260504221944 62 129 1.0 3.0 0.00 0.01 0.01 73 1014.6
20260504221847 62 96 1.0 3.0 0.00 0.01 0.01 73 1014.5
20260504221739 62 60 1.0 5.0 0.00 0.01 0.01 74 1014.5
20260504221640 62 60 1.0 5.0 0.00 0.01 0.01 74 1014.5
20260504221540 62 60 2.0 5.0 0.00 0.01 0.01 73 1014.5
20260504221440 62 58 1.0 5.0 0.00 0.01 0.01 73 1014.5
20260504221340 62 56 1.0 5.0 0.00 0.01 0.01 73 1014.6
20260504221234 62 110 1.0 5.0 0.00 0.01 0.01 73 1014.5
20260504221132 62 104 1.0 5.0 0.00 0.01 0.01 73 1014.5
20260504221032 62 95 1.0 5.0 0.00 0.01 0.01 73 1014.5
20260504220932 62 77 1.0 5.0 0.00 0.01 0.01 72 1014.5
20260504220846 62 103 0.0 5.0 0.00 0.01 0.01 73 1014.4
20260504220731 62 101 0.0 3.0 0.00 0.01 0.01 73 1014.4
20260504220629 62 106 0.0 1.0 0.00 0.01 0.01 74 1014.4
20260504220530 62 27 0.0 1.0 0.00 0.01 0.01 74 1014.4
20260504220429 62 328 0.0 1.0 0.00 0.01 0.01 74 1014.5
20260504220334 62 329 0.0 1.0 0.00 0.01 0.01 72 1014.5
20260504220323 62 328 0.0 1.0 0.00 0.01 0.01 72 1014.5
20260504220231 62 329 0.0 1.0 0.00 0.01 0.01 71 1014.5
20260504220128 62 328 0.0 3.0 0.00 0.01 0.01 69 1014.5
20260504220028 62 328 0.0 3.0 0.00 0.01 0.01 69 1014.5
20260504215925 62 328 0.0 3.0 0.00 0.01 0.01 68 1014.5
20260504215818 62 329 0.0 3.0 0.00 0.01 0.01 69 1014.5
20260504215724 62 329 0.0 3.0 0.00 0.01 0.01 69 1014.6
20260504215622 62 301 0.0 3.0 0.00 0.01 0.01 70 1014.6
20260504215521 62 301 0.0 3.0 0.00 0.01 0.01 70 1014.6
20260504215419 62 301 0.0 3.0 0.00 0.01 0.01 69 1014.6
20260504215322 62 301 0.0 4.0 0.00 0.01 0.01 68 1014.7
20260504215220 62 300 0.0 4.0 0.00 0.01 0.01 69 1014.7
20260504215120 62 300 1.0 4.0 0.00 0.01 0.01 69 1014.7
20260504215019 62 300 1.0 4.0 0.00 0.01 0.01 69 1014.7
20260504214917 62 300 1.0 4.0 0.00 0.01 0.01 69 1014.7
20260504214820 62 299 1.0 4.0 0.00 0.01 0.01 69 1014.7
20260504214719 62 299 1.0 4.0 0.00 0.01 0.01 68 1014.7
20260504214617 62 300 1.0 4.0 0.00 0.01 0.01 68 1014.7
20260504214518 62 299 1.0 4.0 0.00 0.01 0.01 68 1014.7
20260504214418 62 309 1.0 4.0 0.00 0.01 0.01 68 1014.7
20260504214319 62 323 0.0 2.0 0.00 0.01 0.01 67 1014.7
20260504214214 62 323 0.0 2.0 0.00 0.01 0.01 67 1014.7
20260504214112 62 332 0.0 2.0 0.00 0.01 0.01 68 1014.7
20260504214016 63 207 0.0 2.0 0.00 0.01 0.01 68 1014.7
20260504214012 63 329 0.0 2.0 0.00 0.01 0.01 68 1014.7
20260504213918 63 121 0.0 1.0 0.00 0.01 0.01 68 1014.7
20260504213903 63 207 0.0 1.0 0.00 0.01 0.01 68 1014.7
20260504213712 63 207 0.0 2.0 0.00 0.01 0.01 67 1014.7
20260504213635 63 207 0.0 2.0 0.00 0.01 0.01 68 1014.7
20260504213509 63 207 0.0 2.0 0.00 0.01 0.01 68 1014.7
20260504213421 63 207 0.0 2.0 0.00 0.01 0.01 68 1014.7
20260504213411 63 207 0.0 2.0 0.00 0.01 0.01 68 1014.7
20260504213204 63 207 0.0 2.0 0.00 0.01 0.01 68 1014.7
20260504213103 63 207 0.0 2.0 0.00 0.01 0.01 68 1014.7
20260504213006 63 207 0.0 2.0 0.00 0.01 0.01 68 1014.7
20260504212902 63 207 0.0 2.0 0.00 0.01 0.01 67 1014.7
20260504212801 63 207 0.0 2.0 0.00 0.01 0.01 67 1014.7
20260504212700 63 203 0.0 2.0 0.00 0.01 0.01 68 1014.8
20260504212558 63 203 0.0 2.0 0.00 0.01 0.01 67 1014.7
20260504212457 63 203 0.0 2.0 0.00 0.01 0.01 67 1014.8
20260504212355 63 203 0.0 2.0 0.00 0.01 0.01 67 1014.8
20260504212256 63 203 1.0 2.0 0.00 0.01 0.01 68 1014.8
20260504212154 63 203 1.0 3.0 0.00 0.01 0.01 67 1014.8
20260504212052 63 203 1.0 3.0 0.00 0.01 0.01 65 1014.8
20260504211951 63 214 1.0 3.0 0.00 0.01 0.01 66 1014.8
20260504211849 63 214 1.0 3.0 0.00 0.01 0.01 66 1014.8
20260504211749 63 190 2.0 3.0 0.00 0.01 0.01 66 1014.7
20260504211644 63 190 2.0 3.0 0.00 0.01 0.01 66 1014.8
20260504211442 63 190 2.0 4.0 0.00 0.01 0.01 66 1014.8
20260504211342 63 131 2.0 4.0 0.00 0.01 0.01 65 1014.8
20260504211247 63 158 2.0 4.0 0.00 0.01 0.01 66 1014.7
20260504211135 63 160 2.0 4.0 0.00 0.01 0.01 66 1014.7
20260504211036 63 156 2.0 4.0 0.00 0.01 0.01 66 1014.7
20260504210936 63 150 2.0 4.0 0.00 0.01 0.01 66 1014.7
20260504210836 63 226 2.0 4.0 0.00 0.01 0.01 66 1014.7
20260504210737 63 225 2.0 4.0 0.00 0.01 0.01 66 1014.7
20260504210631 63 165 2.0 4.0 0.00 0.01 0.01 66 1014.7
20260504210531 63 242 1.0 4.0 0.00 0.01 0.01 66 1014.7
20260504210432 63 194 1.0 4.0 0.00 0.01 0.01 65 1014.7
20260504210332 63 248 1.0 4.0 0.00 0.01 0.01 66 1014.7
20260504210236 63 214 1.0 3.0 0.00 0.01 0.01 67 1014.7
20260504210125 63 229 1.0 3.0 0.00 0.01 0.01 65 1014.7
20260504210024 63 221 0.0 3.0 0.00 0.01 0.01 66 1014.7
20260504205923 63 232 0.0 3.0 0.00 0.01 0.01 65 1014.7
20260504205824 63 208 0.0 3.0 0.00 0.01 0.01 66 1014.7
20260504205725 63 200 0.0 2.0 0.00 0.01 0.01 66 1014.7
20260504205623 63 235 0.0 2.0 0.00 0.01 0.01 67 1014.7
20260504205521 63 235 0.0 2.0 0.00 0.01 0.01 67 1014.6
20260504205437 63 235 1.0 3.0 0.00 0.01 0.01 68 1014.7
20260504205422 63 235 0.0 2.0 0.00 0.01 0.01 66 1014.7
20260504205337 63 235 0.0 3.0 0.00 0.01 0.01 68 1014.7
20260504205324 63 235 1.0 3.0 0.00 0.01 0.01 68 1014.7
20260504205158 63 233 1.0 3.0 0.00 0.01 0.01 69 1014.6
20260504205118 63 235 1.0 3.0 0.00 0.01 0.01 68 1014.7
20260504205050 63 235 1.0 3.0 0.00 0.01 0.01 67 1014.7
20260504204916 63 235 1.0 3.0 0.00 0.01 0.01 70 1014.7
20260504204830 63 233 1.0 3.0 0.00 0.01 0.01 69 1014.7
20260504204820 63 233 1.0 3.0 0.00 0.01 0.01 69 1014.6
20260504204608 63 240 1.0 4.0 0.00 0.01 0.01 71 1014.6
20260504204507 63 239 1.0 4.0 0.00 0.01 0.01 71 1014.6
20260504204429 62 208 1.0 4.0 0.00 0.01 0.01 73 1014.6
20260504204408 62 239 1.0 4.0 0.00 0.01 0.01 71 1014.6
20260504204325 62 224 1.0 4.0 0.00 0.01 0.01 72 1014.6
20260504204311 62 208 1.0 4.0 0.00 0.01 0.01 73 1014.6
20260504204101 62 248 1.0 4.0 0.00 0.01 0.01 72 1014.7
20260504204002 62 248 1.0 4.0 0.00 0.01 0.01 73 1014.6
20260504203928 62 238 1.0 4.0 0.00 0.01 0.01 72 1014.7
20260504203902 62 248 1.0 4.0 0.00 0.01 0.01 73 1014.7
20260504203815 62 248 1.0 4.0 0.00 0.01 0.01 71 1014.7
20260504203805 62 238 1.0 4.0 0.00 0.01 0.01 72 1014.7
20260504203556 62 233 1.0 4.0 0.00 0.01 0.01 73 1014.7
20260504203454 62 243 1.0 4.0 0.00 0.01 0.01 73 1014.7
20260504203353 62 248 1.0 4.0 0.00 0.01 0.01 72 1014.8
20260504203254 62 207 1.0 3.0 0.00 0.01 0.01 71 1014.8
20260504203154 62 236 1.0 3.0 0.00 0.01 0.01 71 1014.7
20260504203048 62 236 1.0 3.0 0.00 0.01 0.01 72 1014.7
20260504202948 62 218 1.0 3.0 0.00 0.01 0.01 75 1014.7
20260504202847 62 228 1.0 3.0 0.00 0.01 0.01 75 1014.7
20260504202748 62 228 1.0 3.0 0.00 0.01 0.01 74 1014.7
20260504202649 62 229 2.0 3.0 0.00 0.01 0.01 75 1014.7
20260504202542 62 250 2.0 3.0 0.00 0.01 0.01 75 1014.7
20260504202441 62 141 2.0 3.0 0.00 0.01 0.01 75 1014.7
20260504202342 62 141 2.0 3.0 0.00 0.01 0.01 75 1014.8
20260504202242 62 217 2.0 3.0 0.00 0.01 0.01 77 1014.7
20260504202143 61 158 1.0 3.0 0.00 0.01 0.01 77 1014.7
20260504202035 61 165 1.0 3.0 0.00 0.01 0.01 77 1014.7
20260504201936 61 127 2.0 3.0 0.00 0.01 0.01 76 1014.7
20260504201836 61 141 1.0 4.0 0.00 0.01 0.01 77 1014.7
20260504201736 61 135 1.0 4.0 0.00 0.01 0.01 78 1014.6
20260504201638 61 136 1.0 4.0 0.00 0.01 0.01 78 1014.7
20260504201533 61 146 1.0 4.0 0.00 0.01 0.01 78 1014.6
20260504201434 60 127 1.0 4.0 0.00 0.01 0.01 77 1014.7
20260504201333 60 207 1.0 4.0 0.00 0.01 0.01 77 1014.7
20260504201232 60 259 2.0 4.0 0.00 0.01 0.01 77 1014.8
20260504201131 60 130 2.0 5.0 0.00 0.01 0.01 77 1014.8
20260504201027 60 133 2.0 6.0 0.00 0.01 0.01 77 1014.8
20260504200928 60 214 2.0 6.0 0.00 0.01 0.01 77 1014.8
20260504200826 60 205 2.0 6.0 0.00 0.01 0.01 78 1014.8
20260504200726 60 204 2.0 6.0 0.00 0.01 0.01 77 1014.9
20260504200626 60 242 2.0 6.0 0.00 0.01 0.01 77 1014.8
20260504200518 60 248 3.0 6.0 0.00 0.01 0.01 78 1014.9
20260504200317 60 203 3.0 7.0 0.00 0.01 0.01 78 1014.9
20260504200218 60 217 3.0 7.0 0.00 0.01 0.01 78 1014.8
20260504200135 60 208 3.0 7.0 0.00 0.01 0.01 78 1014.9
20260504200015 60 221 2.0 7.0 0.00 0.01 0.01 80 1014.9
20260504195916 60 197 2.0 7.0 0.00 0.01 0.01 81 1014.9
20260504195816 60 239 2.0 7.0 0.00 0.01 0.01 80 1014.9
20260504195714 60 190 2.0 7.0 0.00 0.01 0.01 80 1014.9
20260504195612 60 219 2.0 7.0 0.00 0.01 0.01 80 1014.9
20260504195506 60 145 2.0 7.0 0.00 0.01 0.01 80 1014.9
20260504195406 60 145 2.0 7.0 0.00 0.01 0.01 80 1014.9
20260504195333 60 113 2.0 5.0 0.00 0.01 0.01 81 1014.9
20260504195305 60 137 2.0 5.0 0.00 0.01 0.01 81 1014.9
20260504195225 60 133 2.0 5.0 0.00 0.01 0.01 81 1014.9
20260504195214 60 113 2.0 5.0 0.00 0.01 0.01 81 1014.9
20260504195005 60 126 2.0 5.0 0.00 0.01 0.01 81 1014.9
20260504194904 60 259 2.0 5.0 0.00 0.01 0.01 80 1014.9
20260504194801 60 224 2.0 5.0 0.00 0.01 0.01 81 1014.9
20260504194702 60 136 2.0 5.0 0.00 0.01 0.01 81 1014.9
20260504194601 60 148 2.0 5.0 0.00 0.01 0.01 80 1014.9
20260504194549 60 141 2.0 6.0 0.00 0.01 0.01 83 1014.9
20260504194453 60 177 2.0 5.0 0.00 0.01 0.01 82 1015.0
20260504194431 60 144 2.0 5.0 0.00 0.01 0.01 82 1014.9
20260504194253 60 109 2.0 6.0 0.00 0.01 0.01 82 1014.9
20260504194209 60 139 2.0 6.0 0.00 0.01 0.01 82 1014.9
20260504194159 60 141 2.0 6.0 0.00 0.01 0.01 83 1014.9
20260504193948 60 119 2.0 6.0 0.00 0.01 0.01 83 1014.9
20260504193848 60 122 2.0 6.0 0.00 0.01 0.01 82 1014.9
20260504193747 60 203 2.0 6.0 0.00 0.01 0.01 82 1015.0
20260504193648 60 139 2.0 6.0 0.00 0.01 0.01 81 1015.0
20260504193549 60 151 2.0 6.0 0.00 0.01 0.01 81 1015.0
20260504193444 60 138 2.0 6.0 0.00 0.01 0.01 80 1014.9
20260504193343 60 129 2.0 6.0 0.00 0.01 0.01 80 1014.9
20260504193243 60 150 1.0 4.0 0.00 0.01 0.01 81 1014.9
20260504193143 60 219 1.0 4.0 0.00 0.01 0.01 82 1015.0
20260504193044 60 149 1.0 4.0 0.00 0.01 0.01 82 1015.0
20260504192939 60 141 2.0 5.0 0.00 0.01 0.01 82 1015.0
20260504192835 60 141 2.0 6.0 0.00 0.01 0.01 81 1015.0
20260504192736 60 134 2.0 6.0 0.00 0.01 0.01 81 1015.0
20260504192635 60 113 2.0 6.0 0.00 0.01 0.01 81 1015.0
20260504192538 60 117 2.0 6.0 0.00 0.01 0.01 81 1015.0
20260504192431 60 105 2.0 6.0 0.00 0.01 0.01 80 1015.0
20260504192331 60 136 2.0 6.0 0.00 0.01 0.01 80 1015.0
20260504192234 60 193 3.0 6.0 0.00 0.01 0.01 79 1015.0
20260504192132 60 203 2.0 6.0 0.00 0.01 0.01 79 1015.0
20260504192031 60 120 2.0 6.0 0.00 0.01 0.01 79 1015.1
20260504191923 60 137 2.0 6.0 0.00 0.01 0.01 79 1015.1
20260504191823 60 136 2.0 5.0 0.00 0.01 0.01 79 1015.1
20260504191724 60 134 2.0 5.0 0.00 0.01 0.01 79 1015.1
20260504191623 60 127 2.0 5.0 0.00 0.01 0.01 78 1015.1
20260504191525 60 127 2.0 5.0 0.00 0.01 0.01 78 1015.1
20260504191422 60 141 1.0 5.0 0.00 0.01 0.01 79 1015.0
20260504191322 60 221 1.0 5.0 0.00 0.01 0.01 78 1015.0
20260504191222 60 224 1.0 5.0 0.00 0.01 0.01 79 1015.0
20260504191120 60 146 1.0 5.0 0.00 0.01 0.01 78 1015.0
20260504191021 60 143 1.0 5.0 0.00 0.01 0.01 79 1015.0
20260504191006 60 121 1.0 4.0 0.00 0.01 0.01 80 1015.1
20260504190913 60 143 1.0 5.0 0.00 0.01 0.01 79 1015.0
20260504190845 60 242 1.0 3.0 0.00 0.01 0.01 80 1015.0
20260504190711 60 139 1.0 3.0 0.00 0.01 0.01 80 1015.1
20260504190628 60 139 1.0 3.0 0.00 0.01 0.01 79 1015.1
20260504190618 60 121 1.0 4.0 0.00 0.01 0.01 80 1015.1
20260504190408 60 134 1.0 4.0 0.00 0.01 0.01 80 1015.1
20260504190305 60 134 2.0 4.0 0.00 0.01 0.01 80 1015.1
20260504190206 60 135 2.0 4.0 0.00 0.01 0.01 80 1015.1
20260504190106 59 139 2.0 4.0 0.00 0.01 0.01 81 1015.0
20260504190008 59 136 2.0 4.0 0.00 0.01 0.01 81 1015.1
20260504185859 59 136 2.0 4.0 0.00 0.01 0.01 80 1015.1
20260504185800 59 148 2.0 4.0 0.00 0.01 0.01 79 1015.1
20260504185700 59 148 2.0 4.0 0.00 0.01 0.01 79 1015.1
20260504185559 59 136 2.0 4.0 0.00 0.01 0.01 79 1015.1
20260504185501 59 134 2.0 4.0 0.00 0.01 0.01 80 1015.1
20260504185353 59 108 2.0 4.0 0.00 0.01 0.01 80 1015.1
20260504185253 59 137 1.0 4.0 0.00 0.01 0.01 80 1015.1
20260504185153 59 148 2.0 4.0 0.00 0.01 0.01 80 1015.1
20260504185054 59 124 1.0 4.0 0.00 0.01 0.01 80 1015.1
20260504184956 59 120 2.0 4.0 0.00 0.01 0.01 82 1015.1
20260504184849 59 102 2.0 4.0 0.00 0.01 0.01 79 1015.2
20260504184748 59 218 2.0 7.0 0.00 0.01 0.01 80 1015.2
20260504184648 59 235 2.0 7.0 0.00 0.01 0.01 80 1015.2
20260504184548 59 146 2.0 7.0 0.00 0.01 0.01 80 1015.1
20260504184450 59 214 2.0 7.0 0.00 0.01 0.01 80 1015.2
20260504184341 59 231 2.0 7.0 0.00 0.01 0.01 80 1015.1
20260504184242 59 207 2.0 7.0 0.00 0.01 0.01 81 1015.1
20260504184142 59 228 2.0 7.0 0.00 0.01 0.01 81 1015.2
20260504184041 59 144 2.0 7.0 0.00 0.01 0.01 81 1015.2
20260504183942 59 167 2.0 7.0 0.00 0.01 0.01 80 1015.2
20260504183836 59 115 2.0 7.0 0.00 0.01 0.01 80 1015.2
20260504183735 59 197 2.0 7.0 0.00 0.01 0.01 79 1015.2
20260504183635 59 200 2.0 7.0 0.00 0.01 0.01 80 1015.2
20260504183536 59 203 2.0 7.0 0.00 0.01 0.01 82 1015.2
20260504183437 59 144 2.0 7.0 0.00 0.01 0.01 82 1015.2
20260504183332 59 122 2.0 7.0 0.00 0.01 0.01 81 1015.2
20260504183234 59 120 2.0 7.0 0.00 0.01 0.01 80 1015.2
20260504183130 59 211 2.0 7.0 0.00 0.01 0.01 80 1015.2
20260504183030 59 232 2.0 7.0 0.00 0.01 0.01 80 1015.2
20260504182931 59 156 2.0 7.0 0.00 0.01 0.01 80 1015.3
20260504182824 59 195 2.0 5.0 0.00 0.01 0.01 81 1015.2
20260504182724 59 120 2.0 5.0 0.00 0.01 0.01 82 1015.2
20260504182624 59 214 2.0 5.0 0.00 0.01 0.01 81 1015.2
20260504182523 59 131 2.0 5.0 0.00 0.01 0.01 82 1015.2
20260504182426 59 148 2.0 5.0 0.00 0.01 0.01 82 1015.2
20260504182320 59 201 2.0 6.0 0.00 0.01 0.01 81 1015.2
20260504182220 59 141 2.0 6.0 0.00 0.01 0.01 80 1015.2
20260504182144 59 132 1.0 6.0 0.00 0.01 0.01 81 1015.2
20260504182120 59 143 1.0 6.0 0.00 0.01 0.01 82 1015.1
20260504182033 59 183 1.0 6.0 0.00 0.01 0.01 81 1015.2
20260504182023 59 132 1.0 6.0 0.00 0.01 0.01 81 1015.2
20260504181814 59 139 1.0 6.0 0.00 0.01 0.01 80 1015.2
20260504181712 59 127 1.0 6.0 0.00 0.01 0.01 80 1015.2
20260504181612 59 124 1.0 6.0 0.00 0.01 0.01 79 1015.2
20260504181511 59 199 1.0 6.0 0.00 0.01 0.01 80 1015.2
20260504181413 59 217 1.0 6.0 0.00 0.01 0.01 81 1015.2
20260504181306 59 221 1.0 4.0 0.00 0.01 0.01 80 1015.2
20260504181206 59 248 1.0 4.0 0.00 0.01 0.01 80 1015.2
20260504181135 59 140 2.0 4.0 0.00 0.01 0.01 80 1015.2
20260504181106 59 256 2.0 4.0 0.00 0.01 0.01 79 1015.2
20260504181022 59 138 2.0 4.0 0.00 0.01 0.01 79 1015.2
20260504181012 59 140 2.0 4.0 0.00 0.01 0.01 80 1015.2
20260504180806 59 117 2.0 4.0 0.00 0.01 0.01 78 1015.2
20260504180704 59 131 2.0 4.0 0.00 0.01 0.01 79 1015.2
20260504180603 59 158 2.0 5.0 0.00 0.01 0.01 79 1015.2
20260504180501 59 158 2.0 5.0 0.00 0.01 0.01 79 1015.2
20260504180402 59 218 2.0 5.0 0.00 0.01 0.01 79 1015.1
20260504180254 59 148 2.0 5.0 0.00 0.01 0.01 78 1015.1
20260504180154 59 224 2.0 5.0 0.00 0.01 0.01 78 1015.1
20260504180054 59 154 2.0 7.0 0.00 0.01 0.01 79 1015.1
20260504175953 59 253 2.0 7.0 0.00 0.01 0.01 80 1015.1
20260504175856 59 141 2.0 7.0 0.00 0.01 0.01 79 1015.2
20260504175747 59 155 3.0 7.0 0.00 0.01 0.01 79 1015.1
20260504175648 59 207 3.0 7.0 0.00 0.01 0.01 79 1015.1
20260504175548 59 159 3.0 7.0 0.00 0.01 0.01 79 1015.1
20260504175447 59 219 3.0 7.0 0.00 0.01 0.01 79 1015.1
20260504175349 59 203 3.0 7.0 0.00 0.01 0.01 79 1015.1
20260504175242 59 243 3.0 7.0 0.00 0.01 0.01 79 1015.0
20260504175143 59 208 3.0 7.0 0.00 0.01 0.01 79 1015.0
20260504175040 58 251 3.0 7.0 0.00 0.01 0.01 79 1015.0
20260504174940 59 215 3.0 7.0 0.00 0.01 0.01 79 1015.0
20260504174841 58 248 3.0 7.0 0.00 0.01 0.01 79 1015.0
20260504174735 58 225 3.0 7.0 0.00 0.01 0.01 79 1015.0
20260504174634 58 205 3.0 7.0 0.00 0.01 0.01 79 1015.0
20260504174534 58 129 3.0 6.0 0.00 0.01 0.01 79 1015.0
20260504174434 58 139 3.0 6.0 0.00 0.01 0.01 79 1015.0
20260504174336 58 210 3.0 7.0 0.00 0.01 0.01 79 1014.9
20260504174312 58 129 3.0 7.0 0.00 0.01 0.01 79 1015.0
20260504174230 58 228 3.0 7.0 0.00 0.01 0.01 79 1015.0
20260504174159 58 210 3.0 7.0 0.00 0.01 0.01 78 1015.0
20260504174027 58 229 3.0 7.0 0.00 0.01 0.01 79 1014.9
20260504173945 58 219 2.0 7.0 0.00 0.01 0.01 79 1015.0
20260504173935 58 129 3.0 7.0 0.00 0.01 0.01 79 1015.0
20260504173724 58 239 3.0 7.0 0.00 0.01 0.01 79 1015.0
20260504173622 58 232 3.0 7.0 0.00 0.01 0.01 79 1015.0
20260504173546 58 210 2.0 7.0 0.00 0.01 0.01 79 1015.0
20260504173522 58 148 3.0 7.0 0.00 0.01 0.01 79 1014.9
20260504173440 58 166 2.0 7.0 0.00 0.01 0.01 79 1015.0
20260504173430 58 210 2.0 7.0 0.00 0.01 0.01 79 1015.0
20260504173220 58 217 2.0 5.0 0.00 0.01 0.01 79 1015.0
20260504173120 58 225 2.0 5.0 0.00 0.01 0.01 79 1015.0
20260504173017 58 228 2.0 5.0 0.00 0.01 0.01 78 1015.0
20260504172918 58 219 2.0 5.0 0.00 0.01 0.01 79 1015.0
20260504172818 58 221 2.0 5.0 0.00 0.01 0.01 79 1015.0
20260504172714 58 207 2.0 5.0 0.00 0.01 0.01 79 1015.0
20260504172614 58 126 2.0 4.0 0.00 0.01 0.01 79 1015.0
20260504172528 58 242 1.0 5.0 0.00 0.01 0.01 79 1015.0
20260504172514 58 205 2.0 4.0 0.00 0.01 0.01 79 1015.0
20260504172427 58 224 2.0 4.0 0.00 0.01 0.01 78 1015.0
20260504172416 58 242 1.0 5.0 0.00 0.01 0.01 79 1015.0
20260504172205 58 229 1.0 5.0 0.00 0.01 0.01 79 1015.0
20260504172106 58 236 1.0 5.0 0.00 0.01 0.01 79 1015.0
20260504172006 58 238 1.0 5.0 0.00 0.01 0.01 79 1015.0
20260504171905 58 229 1.0 5.0 0.00 0.01 0.01 80 1015.0
20260504171806 58 204 2.0 6.0 0.00 0.01 0.01 80 1015.0
20260504171659 58 120 2.0 6.0 0.00 0.01 0.01 80 1014.9
20260504171558 58 236 2.0 7.0 0.00 0.01 0.01 80 1014.9
20260504171459 58 236 2.0 7.0 0.00 0.01 0.01 80 1014.9
20260504171357 58 222 2.0 7.0 0.00 0.01 0.01 80 1014.9
20260504171300 58 245 2.0 7.0 0.00 0.01 0.01 80 1014.9
20260504171153 58 228 2.0 7.0 0.00 0.01 0.01 79 1014.9
20260504171052 58 212 2.0 7.0 0.00 0.01 0.01 79 1014.9
20260504170952 58 210 2.0 7.0 0.00 0.01 0.01 79 1014.9
20260504170852 58 257 2.0 7.0 0.00 0.01 0.01 80 1014.9
20260504170753 58 243 2.0 7.0 0.00 0.01 0.01 80 1014.9
20260504170648 58 235 2.0 5.0 0.00 0.01 0.01 80 1014.9
20260504170547 58 226 2.0 5.0 0.00 0.01 0.01 80 1014.9
20260504170515 58 197 2.0 4.0 0.00 0.01 0.01 79 1014.9
20260504170447 58 162 2.0 5.0 0.00 0.01 0.01 80 1014.9
20260504170403 58 255 2.0 4.0 0.00 0.01 0.01 80 1014.9
20260504170352 58 197 2.0 4.0 0.00 0.01 0.01 79 1014.9
20260504170140 58 217 2.0 5.0 0.00 0.01 0.01 80 1014.9
20260504160435 56 210 1.0 5.0 0.01 0.01 0.01 84 1014.7
20260504160336 56 218 1.0 5.0 0.01 0.01 0.01 84 1014.7
20260504160236 56 225 1.0 5.0 0.01 0.01 0.01 84 1014.7
20260504160137 56 218 1.0 5.0 0.01 0.01 0.01 85 1014.7